| time (UTC) | temp C | wind direction | speed KPH | gust KPH | rain 1hr cm | rain 24hr cm | rain mn cm | humidity % | barometer mb |
| 20260508013031 | 3 | 293 | 3.2 | 4.8 | 0.00 | 0.00 | 0.00 | 93 | 854.5 |
| 20260508012827 | 3 | 297 | 3.2 | 4.8 | 0.00 | 0.00 | 0.00 | 93 | 854.5 |
| 20260508012629 | 3 | 294 | 3.2 | 6.4 | 0.00 | 0.00 | 0.00 | 93 | 854.5 |
| 20260508012428 | 3 | 314 | 4.8 | 6.4 | 0.00 | 0.00 | 0.00 | 93 | 854.5 |
| 20260508012327 | 3 | 314 | 4.8 | 6.4 | 0.00 | 0.00 | 0.00 | 93 | 854.5 |
| 20260508012228 | 3 | 311 | 4.8 | 6.4 | 0.00 | 0.00 | 0.00 | 93 | 854.5 |
| 20260508011824 | 3 | 287 | 3.2 | 6.4 | 0.00 | 0.00 | 0.00 | 93 | 854.4 |
| 20260508011625 | 3 | 286 | 3.2 | 4.8 | 0.00 | 0.00 | 0.00 | 93 | 854.4 |
| 20260508011425 | 3 | 287 | 3.2 | 4.8 | 0.00 | 0.00 | 0.00 | 93 | 854.4 |
| 20260508011324 | 3 | 286 | 4.8 | 4.8 | 0.00 | 0.00 | 0.00 | 93 | 854.4 |
| 20260508011225 | 3 | 288 | 4.8 | 6.4 | 0.00 | 0.00 | 0.00 | 93 | 854.4 |
| 20260508011025 | 3 | 286 | 3.2 | 6.4 | 0.00 | 0.00 | 0.00 | 93 | 854.4 |
| 20260508010821 | 3 | 281 | 3.2 | 6.4 | 0.00 | 0.00 | 0.00 | 93 | 854.4 |
| 20260508010422 | 3 | 276 | 3.2 | 6.4 | 0.00 | 0.00 | 0.00 | 93 | 854.3 |
| 20260508010321 | 3 | 280 | 3.2 | 4.8 | 0.00 | 0.00 | 0.00 | 93 | 854.3 |
| 20260508010221 | 3 | 292 | 3.2 | 4.8 | 0.00 | 0.00 | 0.00 | 93 | 854.3 |
| 20260508010022 | 3 | 307 | 3.2 | 4.8 | 0.00 | 0.00 | 0.00 | 93 | 854.3 |
| 20260508005818 | 3 | 264 | 3.2 | 3.2 | 0.00 | 0.00 | 0.00 | 93 | 854.3 |
| 20260508005620 | 3 | 245 | 3.2 | 6.4 | 0.00 | 0.00 | 0.00 | 93 | 854.3 |
| 20260508005420 | 3 | 267 | 3.2 | 6.4 | 0.00 | 0.00 | 0.00 | 93 | 854.3 |
| 20260508005318 | 3 | 287 | 3.2 | 6.4 | 0.00 | 0.00 | 0.00 | 93 | 854.3 |
| 20260508005219 | 3 | 294 | 3.2 | 4.8 | 0.00 | 0.00 | 0.00 | 93 | 854.3 |
| 20260508005019 | 3 | 281 | 1.6 | 4.8 | 0.00 | 0.00 | 0.00 | 93 | 854.3 |
| 20260508004815 | 3 | 302 | 3.2 | 6.4 | 0.00 | 0.00 | 0.00 | 93 | 854.4 |
| 20260508004615 | 3 | 330 | 1.6 | 4.8 | 0.00 | 0.00 | 0.00 | 93 | 854.4 |
| 20260508004416 | 3 | 305 | 3.2 | 4.8 | 0.00 | 0.00 | 0.00 | 93 | 854.4 |
| 20260508004315 | 3 | 308 | 3.2 | 3.2 | 0.00 | 0.00 | 0.00 | 93 | 854.4 |
| 20260508004215 | 3 | 309 | 3.2 | 4.8 | 0.00 | 0.00 | 0.00 | 93 | 854.4 |
| 20260508003812 | 4 | 285 | 3.2 | 4.8 | 0.00 | 0.00 | 0.00 | 93 | 854.4 |
| 20260508003414 | 4 | 286 | 3.2 | 4.8 | 0.00 | 0.00 | 0.00 | 93 | 854.3 |
| 20260508003312 | 4 | 285 | 3.2 | 4.8 | 0.00 | 0.00 | 0.00 | 93 | 854.3 |
| 20260508003213 | 4 | 286 | 3.2 | 3.2 | 0.00 | 0.00 | 0.00 | 93 | 854.3 |
| 20260508003012 | 4 | 296 | 4.8 | 6.4 | 0.00 | 0.00 | 0.00 | 93 | 854.3 |
| 20260508002809 | 4 | 298 | 4.8 | 6.4 | 0.00 | 0.00 | 0.00 | 93 | 854.3 |
| 20260508002610 | 4 | 284 | 4.8 | 6.4 | 0.00 | 0.00 | 0.00 | 93 | 854.3 |
| 20260508002410 | 4 | 324 | 4.8 | 6.4 | 0.00 | 0.00 | 0.00 | 93 | 854.4 |
| 20260508002256 | 4 | 319 | 4.8 | 8.0 | 0.00 | 0.00 | 0.00 | 93 | 854.4 |
| 20260508002157 | 4 | 299 | 6.4 | 8.0 | 0.00 | 0.00 | 0.00 | 93 | 854.4 |
| 20260508001753 | 4 | 304 | 4.8 | 6.4 | 0.00 | 0.00 | 0.00 | 93 | 854.4 |
| 20260508001555 | 4 | 305 | 4.8 | 6.4 | 0.00 | 0.00 | 0.00 | 93 | 854.4 |
| 20260508001354 | 4 | 313 | 4.8 | 6.4 | 0.00 | 0.00 | 0.00 | 93 | 854.4 |
| 20260508001253 | 4 | 319 | 4.8 | 6.4 | 0.00 | 0.00 | 0.00 | 93 | 854.4 |
| 20260508001154 | 4 | 336 | 4.8 | 6.4 | 0.00 | 0.00 | 0.00 | 93 | 854.4 |
| 20260508000954 | 4 | 351 | 4.8 | 8.0 | 0.00 | 0.00 | 0.00 | 93 | 854.5 |
| 20260508000750 | 4 | 299 | 4.8 | 8.0 | 0.00 | 0.00 | 0.00 | 93 | 854.4 |
| 20260508000351 | 4 | 261 | 9.7 | 14.5 | 0.00 | 0.00 | 0.00 | 93 | 854.5 |
| 20260508000250 | 4 | 268 | 8.0 | 11.3 | 0.00 | 0.00 | 0.00 | 93 | 854.5 |
| 20260507235747 | 4 | 268 | 8.0 | 11.3 | 0.00 | 0.00 | 0.00 | 93 | 854.5 |
| 20260507235548 | 4 | 291 | 9.7 | 11.3 | 0.00 | 0.00 | 0.00 | 93 | 854.5 |
| 20260507235348 | 4 | 291 | 8.0 | 9.7 | 0.00 | 0.00 | 0.00 | 93 | 854.5 |
| 20260507235247 | 4 | 284 | 8.0 | 9.7 | 0.00 | 0.00 | 0.00 | 93 | 854.5 |
| 20260507235148 | 4 | 278 | 9.7 | 11.3 | 0.00 | 0.00 | 0.00 | 93 | 854.4 |
| 20260507234948 | 4 | 277 | 11.3 | 19.3 | 0.00 | 0.00 | 0.00 | 93 | 854.4 |
| 20260507234744 | 4 | 294 | 11.3 | 12.9 | 0.00 | 0.00 | 0.00 | 92 | 854.4 |
| 20260507234546 | 4 | 305 | 8.0 | 12.9 | 0.00 | 0.00 | 0.00 | 92 | 854.5 |
| 20260507234346 | 4 | 316 | 6.4 | 11.3 | 0.00 | 0.00 | 0.00 | 92 | 854.5 |
| 20260507234244 | 4 | 304 | 8.0 | 14.5 | 0.00 | 0.00 | 0.00 | 92 | 854.5 |
| 20260507234146 | 5 | 302 | 9.7 | 14.5 | 0.00 | 0.00 | 0.00 | 92 | 854.5 |
| 20260507233741 | 5 | 286 | 9.7 | 22.5 | 0.00 | 0.00 | 0.00 | 92 | 854.4 |
| 20260507233541 | 5 | 326 | 8.0 | 22.5 | 0.00 | 0.00 | 0.00 | 92 | 854.4 |
| 20260507233342 | 5 | 288 | 8.0 | 12.9 | 0.00 | 0.00 | 0.00 | 92 | 854.5 |
| 20260507233241 | 5 | 283 | 8.0 | 12.9 | 0.00 | 0.00 | 0.00 | 92 | 854.5 |
| 20260507233142 | 5 | 304 | 8.0 | 12.9 | 0.00 | 0.00 | 0.00 | 92 | 854.5 |
| 20260507232942 | 5 | 302 | 8.0 | 12.9 | 0.00 | 0.00 | 0.00 | 92 | 854.6 |
| 20260507232738 | 5 | 275 | 9.7 | 12.9 | 0.00 | 0.00 | 0.00 | 92 | 854.5 |
| 20260507232539 | 5 | 288 | 8.0 | 12.9 | 0.00 | 0.00 | 0.00 | 92 | 854.6 |
| 20260507232339 | 5 | 322 | 6.4 | 9.7 | 0.00 | 0.00 | 0.00 | 92 | 854.6 |
| 20260507232238 | 5 | 317 | 6.4 | 9.7 | 0.00 | 0.00 | 0.00 | 92 | 854.6 |
| 20260507231735 | 5 | 295 | 9.7 | 12.9 | 0.00 | 0.00 | 0.00 | 92 | 854.5 |
| 20260507231536 | 5 | 299 | 9.7 | 12.9 | 0.00 | 0.00 | 0.00 | 92 | 854.5 |
| 20260507231235 | 5 | 313 | 8.0 | 14.5 | 0.00 | 0.00 | 0.00 | 92 | 854.5 |
| 20260507231136 | 5 | 285 | 11.3 | 19.3 | 0.00 | 0.00 | 0.00 | 92 | 854.4 |
| 20260507230936 | 5 | 280 | 8.0 | 19.3 | 0.00 | 0.00 | 0.00 | 92 | 854.4 |
| 20260507230732 | 5 | 295 | 4.8 | 6.4 | 0.00 | 0.00 | 0.00 | 92 | 854.4 |
| 20260507230333 | 5 | 282 | 4.8 | 8.0 | 0.00 | 0.00 | 0.00 | 92 | 854.3 |
| 20260507230233 | 5 | 292 | 4.8 | 4.8 | 0.00 | 0.00 | 0.00 | 92 | 854.3 |
| 20260507230133 | 5 | 282 | 4.8 | 6.4 | 0.00 | 0.00 | 0.00 | 92 | 854.3 |
| 20260507225933 | 5 | 270 | 3.2 | 6.4 | 0.00 | 0.00 | 0.00 | 92 | 854.3 |
| 20260507225730 | 5 | 279 | 3.2 | 4.8 | 0.00 | 0.00 | 0.00 | 92 | 854.3 |
| 20260507225532 | 5 | 284 | 4.8 | 8.0 | 0.00 | 0.00 | 0.00 | 92 | 854.4 |
| 20260507225331 | 5 | 261 | 6.4 | 9.7 | 0.00 | 0.00 | 0.00 | 92 | 854.4 |
| 20260507225229 | 5 | 256 | 4.8 | 9.7 | 0.00 | 0.00 | 0.00 | 92 | 854.4 |
| 20260507224930 | 5 | 261 | 3.2 | 4.8 | 0.00 | 0.00 | 0.00 | 92 | 854.4 |
| 20260507224727 | 5 | 258 | 4.8 | 6.4 | 0.00 | 0.00 | 0.00 | 92 | 854.4 |
| 20260507224527 | 5 | 270 | 4.8 | 6.4 | 0.00 | 0.00 | 0.00 | 92 | 854.4 |
| 20260507224327 | 5 | 289 | 4.8 | 6.4 | 0.00 | 0.00 | 0.00 | 92 | 854.4 |
| 20260507224227 | 5 | 292 | 4.8 | 6.4 | 0.00 | 0.00 | 0.00 | 92 | 854.4 |
| 20260507223927 | 5 | 261 | 6.4 | 9.7 | 0.00 | 0.00 | 0.00 | 92 | 854.4 |
| 20260507223723 | 5 | 263 | 8.0 | 9.7 | 0.00 | 0.00 | 0.00 | 92 | 854.4 |
| 20260507223525 | 5 | 276 | 6.4 | 9.7 | 0.00 | 0.00 | 0.00 | 92 | 854.4 |
| 20260507223325 | 5 | 270 | 6.4 | 8.0 | 0.00 | 0.00 | 0.00 | 91 | 854.4 |
| 20260507223223 | 5 | 260 | 6.4 | 8.0 | 0.00 | 0.00 | 0.00 | 91 | 854.4 |
| 20260507223125 | 5 | 251 | 6.4 | 8.0 | 0.00 | 0.00 | 0.00 | 91 | 854.4 |
| 20260507222924 | 5 | 244 | 6.4 | 8.0 | 0.00 | 0.00 | 0.00 | 91 | 854.4 |
| 20260507222721 | 5 | 236 | 8.0 | 11.3 | 0.00 | 0.00 | 0.00 | 91 | 854.4 |
| 20260507222522 | 5 | 248 | 8.0 | 11.3 | 0.00 | 0.00 | 0.00 | 92 | 854.4 |
| 20260507222322 | 5 | 261 | 8.0 | 9.7 | 0.00 | 0.00 | 0.00 | 92 | 854.4 |
| 20260507222221 | 5 | 260 | 8.0 | 9.7 | 0.00 | 0.00 | 0.00 | 92 | 854.4 |
| 20260507221922 | 6 | 261 | 8.0 | 11.3 | 0.00 | 0.00 | 0.00 | 92 | 854.4 |
| 20260507221718 | 6 | 263 | 6.4 | 9.7 | 0.00 | 0.00 | 0.00 | 92 | 854.3 |
| 20260507221518 | 6 | 246 | 6.4 | 9.7 | 0.00 | 0.00 | 0.00 | 92 | 854.3 |
| 20260507221318 | 6 | 246 | 6.4 | 9.7 | 0.00 | 0.00 | 0.00 | 92 | 854.3 |
| 20260507221217 | 6 | 254 | 6.4 | 9.7 | 0.00 | 0.00 | 0.00 | 92 | 854.3 |
| 20260507220917 | 6 | 266 | 6.4 | 9.7 | 0.00 | 0.00 | 0.00 | 92 | 854.3 |
| 20260507220714 | 6 | 270 | 6.4 | 9.7 | 0.00 | 0.00 | 0.00 | 92 | 854.3 |
| 20260507220315 | 6 | 268 | 8.0 | 11.3 | 0.00 | 0.00 | 0.00 | 92 | 854.2 |
| 20260507220214 | 6 | 272 | 8.0 | 11.3 | 0.00 | 0.00 | 0.00 | 92 | 854.2 |
| 20260507215914 | 6 | 260 | 8.0 | 11.3 | 0.00 | 0.00 | 0.00 | 92 | 854.2 |
| 20260507215711 | 6 | 258 | 6.4 | 11.3 | 0.00 | 0.00 | 0.00 | 92 | 854.2 |
| 20260507215511 | 6 | 252 | 6.4 | 11.3 | 0.00 | 0.00 | 0.00 | 92 | 854.2 |
| 20260507215311 | 6 | 242 | 8.0 | 11.3 | 0.00 | 0.00 | 0.00 | 91 | 854.2 |
| 20260507215210 | 6 | 239 | 8.0 | 11.3 | 0.00 | 0.00 | 0.00 | 91 | 854.2 |
| 20260507215112 | 6 | 239 | 8.0 | 11.3 | 0.00 | 0.00 | 0.00 | 91 | 854.1 |
| 20260507214911 | 6 | 243 | 8.0 | 11.3 | 0.00 | 0.00 | 0.00 | 91 | 854.1 |
| 20260507214654 | 6 | 251 | 6.4 | 9.7 | 0.00 | 0.00 | 0.00 | 91 | 854.1 |
| 20260507214455 | 6 | 263 | 8.0 | 12.9 | 0.00 | 0.00 | 0.00 | 91 | 854.1 |
| 20260507214255 | 6 | 264 | 8.0 | 14.5 | 0.00 | 0.00 | 0.00 | 91 | 854.1 |
| 20260507214154 | 6 | 265 | 8.0 | 14.5 | 0.00 | 0.00 | 0.00 | 91 | 854.1 |
| 20260507214055 | 6 | 266 | 8.0 | 9.7 | 0.00 | 0.00 | 0.00 | 91 | 854.1 |
| 20260507213855 | 6 | 256 | 6.4 | 9.7 | 0.00 | 0.00 | 0.00 | 91 | 854.0 |
| 20260507213651 | 6 | 262 | 6.4 | 11.3 | 0.00 | 0.00 | 0.00 | 91 | 854.0 |
| 20260507213454 | 6 | 248 | 9.7 | 16.1 | 0.00 | 0.00 | 0.00 | 91 | 854.0 |
| 20260507213253 | 6 | 243 | 9.7 | 17.7 | 0.00 | 0.00 | 0.00 | 91 | 854.1 |
| 20260507213151 | 6 | 252 | 9.7 | 17.7 | 0.00 | 0.00 | 0.00 | 91 | 854.1 |
| 20260507213052 | 6 | 246 | 11.3 | 17.7 | 0.00 | 0.00 | 0.00 | 91 | 854.2 |
| 20260507212853 | 6 | 232 | 9.7 | 16.1 | 0.00 | 0.00 | 0.00 | 91 | 854.4 |
| 20260507212649 | 6 | 222 | 11.3 | 17.7 | 0.00 | 0.00 | 0.00 | 91 | 854.5 |
| 20260507212449 | 6 | 218 | 11.3 | 17.7 | 0.00 | 0.00 | 0.00 | 91 | 854.5 |
| 20260507212250 | 6 | 231 | 11.3 | 19.3 | 0.00 | 0.00 | 0.00 | 91 | 854.5 |
| 20260507212149 | 6 | 229 | 12.9 | 19.3 | 0.00 | 0.00 | 0.00 | 91 | 854.5 |
| 20260507212049 | 6 | 223 | 12.9 | 19.3 | 0.00 | 0.00 | 0.00 | 91 | 854.5 |
| 20260507211849 | 6 | 219 | 11.3 | 14.5 | 0.00 | 0.00 | 0.00 | 91 | 854.5 |
| 20260507211645 | 6 | 217 | 11.3 | 16.1 | 0.00 | 0.00 | 0.00 | 91 | 854.5 |
| 20260507211447 | 6 | 221 | 11.3 | 16.1 | 0.00 | 0.00 | 0.00 | 91 | 854.4 |
| 20260507211246 | 6 | 220 | 11.3 | 19.3 | 0.00 | 0.00 | 0.00 | 91 | 854.4 |
| 20260507211145 | 6 | 219 | 11.3 | 19.3 | 0.00 | 0.00 | 0.00 | 91 | 854.4 |
| 20260507211046 | 6 | 219 | 11.3 | 22.5 | 0.00 | 0.00 | 0.00 | 91 | 854.4 |
| 20260507210846 | 6 | 221 | 9.7 | 22.5 | 0.00 | 0.00 | 0.00 | 91 | 854.4 |
| 20260507210642 | 6 | 221 | 9.7 | 16.1 | 0.00 | 0.00 | 0.00 | 91 | 854.4 |
| 20260507210443 | 6 | 218 | 11.3 | 20.9 | 0.00 | 0.00 | 0.00 | 91 | 854.4 |
| 20260507210243 | 6 | 216 | 11.3 | 19.3 | 0.00 | 0.00 | 0.00 | 91 | 854.4 |
| 20260507210142 | 6 | 220 | 11.3 | 19.3 | 0.00 | 0.00 | 0.00 | 91 | 854.4 |
| 20260507210043 | 6 | 216 | 11.3 | 19.3 | 0.00 | 0.00 | 0.00 | 91 | 854.4 |
| 20260507205639 | 6 | 213 | 9.7 | 16.1 | 0.00 | 0.00 | 0.00 | 91 | 854.4 |
| 20260507205440 | 6 | 218 | 9.7 | 16.1 | 0.00 | 0.00 | 0.00 | 91 | 854.4 |
| 20260507205240 | 6 | 218 | 11.3 | 16.1 | 0.00 | 0.00 | 0.00 | 91 | 854.4 |
| 20260507205139 | 6 | 222 | 11.3 | 16.1 | 0.00 | 0.00 | 0.00 | 91 | 854.4 |
| 20260507205040 | 6 | 225 | 11.3 | 16.1 | 0.00 | 0.00 | 0.00 | 91 | 854.4 |
| 20260507204840 | 6 | 221 | 9.7 | 14.5 | 0.00 | 0.00 | 0.00 | 91 | 854.4 |
| 20260507204636 | 6 | 216 | 9.7 | 12.9 | 0.00 | 0.00 | 0.00 | 91 | 854.4 |
| 20260507204436 | 6 | 215 | 9.7 | 12.9 | 0.00 | 0.00 | 0.00 | 91 | 854.4 |
| 20260507204237 | 6 | 225 | 8.0 | 9.7 | 0.00 | 0.00 | 0.00 | 91 | 854.4 |
| 20260507204136 | 6 | 221 | 8.0 | 12.9 | 0.00 | 0.00 | 0.00 | 91 | 854.4 |
| 20260507204037 | 6 | 222 | 8.0 | 12.9 | 0.00 | 0.00 | 0.00 | 91 | 854.4 |
| 20260507203836 | 6 | 220 | 8.0 | 12.9 | 0.00 | 0.00 | 0.00 | 91 | 854.4 |
| 20260507203633 | 6 | 224 | 8.0 | 14.5 | 0.00 | 0.00 | 0.00 | 91 | 854.4 |
| 20260507203233 | 6 | 217 | 9.7 | 12.9 | 0.00 | 0.00 | 0.00 | 90 | 854.4 |
| 20260507203133 | 6 | 216 | 9.7 | 14.5 | 0.00 | 0.00 | 0.00 | 91 | 854.4 |
| 20260507203034 | 6 | 217 | 9.7 | 14.5 | 0.00 | 0.00 | 0.00 | 91 | 854.4 |
| 20260507202833 | 6 | 224 | 9.7 | 14.5 | 0.00 | 0.00 | 0.00 | 90 | 854.4 |
| 20260507202630 | 6 | 223 | 6.4 | 11.3 | 0.00 | 0.00 | 0.00 | 90 | 854.4 |
| 20260507202431 | 6 | 222 | 8.0 | 12.9 | 0.00 | 0.00 | 0.00 | 90 | 854.3 |
| 20260507202231 | 6 | 220 | 9.7 | 12.9 | 0.00 | 0.00 | 0.00 | 90 | 854.3 |
| 20260507202130 | 6 | 220 | 8.0 | 11.3 | 0.00 | 0.00 | 0.00 | 90 | 854.3 |
| 20260507202030 | 6 | 216 | 8.0 | 11.3 | 0.00 | 0.00 | 0.00 | 90 | 854.3 |
| 20260507201830 | 6 | 208 | 8.0 | 14.5 | 0.00 | 0.00 | 0.00 | 90 | 854.3 |
| 20260507201627 | 6 | 199 | 8.0 | 11.3 | 0.00 | 0.00 | 0.00 | 90 | 854.4 |
| 20260507201428 | 6 | 197 | 9.7 | 16.1 | 0.00 | 0.00 | 0.00 | 90 | 854.4 |
| 20260507201228 | 6 | 205 | 9.7 | 16.1 | 0.00 | 0.00 | 0.00 | 90 | 854.4 |
| 20260507201127 | 6 | 209 | 9.7 | 14.5 | 0.00 | 0.00 | 0.00 | 90 | 854.4 |
| 20260507201028 | 6 | 208 | 9.7 | 14.5 | 0.00 | 0.00 | 0.00 | 90 | 854.4 |
| 20260507200624 | 6 | 205 | 6.4 | 11.3 | 0.00 | 0.00 | 0.00 | 90 | 854.4 |
| 20260507200425 | 6 | 201 | 8.0 | 12.9 | 0.00 | 0.00 | 0.00 | 90 | 854.4 |
| 20260507200224 | 6 | 192 | 9.7 | 12.9 | 0.00 | 0.00 | 0.00 | 90 | 854.4 |
| 20260507200124 | 6 | 192 | 9.7 | 16.1 | 0.00 | 0.00 | 0.00 | 90 | 854.4 |
| 20260507200024 | 6 | 197 | 9.7 | 16.1 | 0.00 | 0.00 | 0.00 | 90 | 854.5 |
| 20260507195824 | 6 | 198 | 9.7 | 16.1 | 0.00 | 0.00 | 0.00 | 90 | 854.5 |
| 20260507195620 | 6 | 196 | 11.3 | 19.3 | 0.00 | 0.00 | 0.00 | 90 | 854.4 |
| 20260507195421 | 6 | 193 | 12.9 | 17.7 | 0.00 | 0.00 | 0.00 | 90 | 854.4 |
| 20260507195221 | 6 | 195 | 11.3 | 17.7 | 0.00 | 0.00 | 0.00 | 90 | 854.4 |
| 20260507195120 | 6 | 198 | 9.7 | 16.1 | 0.00 | 0.00 | 0.00 | 90 | 854.4 |
| 20260507195021 | 6 | 197 | 11.3 | 16.1 | 0.00 | 0.00 | 0.00 | 90 | 854.4 |
| 20260507194821 | 6 | 201 | 11.3 | 17.7 | 0.00 | 0.00 | 0.00 | 90 | 854.3 |
| 20260507194617 | 6 | 204 | 8.0 | 14.5 | 0.00 | 0.00 | 0.00 | 90 | 854.3 |
| 20260507194418 | 6 | 203 | 9.7 | 16.1 | 0.00 | 0.00 | 0.00 | 89 | 854.3 |
| 20260507194218 | 6 | 209 | 9.7 | 17.7 | 0.00 | 0.00 | 0.00 | 89 | 854.2 |
| 20260507194117 | 6 | 203 | 9.7 | 17.7 | 0.00 | 0.00 | 0.00 | 89 | 854.2 |
| 20260507194019 | 6 | 196 | 9.7 | 17.7 | 0.00 | 0.00 | 0.00 | 89 | 854.2 |
| 20260507193817 | 6 | 189 | 11.3 | 16.1 | 0.00 | 0.00 | 0.00 | 89 | 854.2 |
| 20260507193614 | 6 | 197 | 9.7 | 14.5 | 0.00 | 0.00 | 0.00 | 89 | 854.2 |
| 20260507193415 | 6 | 202 | 9.7 | 12.9 | 0.00 | 0.00 | 0.00 | 89 | 854.2 |
| 20260507193215 | 6 | 194 | 11.3 | 16.1 | 0.00 | 0.00 | 0.00 | 89 | 854.3 |
| 20260507193114 | 6 | 194 | 9.7 | 16.1 | 0.00 | 0.00 | 0.00 | 89 | 854.3 |
| 20260507193015 | 6 | 192 | 9.7 | 14.5 | 0.00 | 0.00 | 0.00 | 89 | 854.3 |
| 20260507192824 | 6 | 194 | 9.7 | 14.5 | 0.00 | 0.00 | 0.00 | 89 | 854.3 |
| 20260507192611 | 6 | 198 | 9.7 | 14.5 | 0.00 | 0.00 | 0.00 | 89 | 854.3 |
| 20260507192412 | 6 | 196 | 9.7 | 14.5 | 0.00 | 0.00 | 0.00 | 89 | 854.3 |
| 20260507192212 | 6 | 193 | 9.7 | 14.5 | 0.00 | 0.00 | 0.00 | 89 | 854.3 |
| 20260507192111 | 6 | 198 | 9.7 | 14.5 | 0.00 | 0.00 | 0.00 | 89 | 854.3 |
| 20260507192012 | 6 | 199 | 9.7 | 12.9 | 0.00 | 0.00 | 0.00 | 89 | 854.3 |
| 20260507191813 | 6 | 202 | 9.7 | 14.5 | 0.00 | 0.00 | 0.00 | 89 | 854.2 |
| 20260507191608 | 6 | 193 | 12.9 | 16.1 | 0.00 | 0.00 | 0.00 | 89 | 854.2 |
| 20260507191409 | 6 | 198 | 11.3 | 16.1 | 0.00 | 0.00 | 0.00 | 89 | 854.2 |
| 20260507191210 | 6 | 207 | 9.7 | 12.9 | 0.00 | 0.00 | 0.00 | 89 | 854.2 |
| 20260507191055 | 6 | 207 | 9.7 | 12.9 | 0.00 | 0.00 | 0.00 | 89 | 854.2 |
| 20260507190956 | 6 | 203 | 8.0 | 12.9 | 0.00 | 0.00 | 0.00 | 89 | 854.2 |
| 20260507190756 | 6 | 205 | 8.0 | 9.7 | 0.00 | 0.00 | 0.00 | 89 | 854.1 |
| 20260507190552 | 6 | 205 | 9.7 | 16.1 | 0.00 | 0.00 | 0.00 | 89 | 854.1 |
| 20260507190353 | 6 | 197 | 11.3 | 16.1 | 0.00 | 0.00 | 0.00 | 89 | 854.2 |
| 20260507190154 | 6 | 193 | 12.9 | 16.1 | 0.00 | 0.00 | 0.00 | 89 | 854.2 |
| 20260507190052 | 6 | 191 | 12.9 | 17.7 | 0.00 | 0.00 | 0.00 | 89 | 854.2 |
| 20260507185952 | 6 | 195 | 12.9 | 17.7 | 0.00 | 0.00 | 0.00 | 88 | 854.2 |
| 20260507185753 | 6 | 194 | 12.9 | 17.7 | 0.00 | 0.00 | 0.00 | 88 | 854.2 |
| 20260507185549 | 5 | 193 | 9.7 | 16.1 | 0.00 | 0.00 | 0.00 | 88 | 854.2 |
| 20260507185350 | 5 | 189 | 9.7 | 16.1 | 0.00 | 0.00 | 0.00 | 88 | 854.1 |
| 20260507185150 | 5 | 185 | 11.3 | 16.1 | 0.00 | 0.00 | 0.00 | 87 | 854.1 |
| 20260507185049 | 5 | 185 | 9.7 | 16.1 | 0.00 | 0.00 | 0.00 | 87 | 854.1 |
| 20260507184949 | 5 | 189 | 11.3 | 16.1 | 0.00 | 0.00 | 0.00 | 87 | 854.1 |
| 20260507184749 | 5 | 191 | 11.3 | 17.7 | 0.00 | 0.00 | 0.00 | 87 | 854.0 |
| 20260507184546 | 5 | 191 | 11.3 | 17.7 | 0.00 | 0.00 | 0.00 | 87 | 853.9 |
| 20260507184348 | 5 | 190 | 12.9 | 16.1 | 0.00 | 0.00 | 0.00 | 87 | 853.9 |
| 20260507184146 | 5 | 194 | 11.3 | 14.5 | 0.00 | 0.00 | 0.00 | 87 | 853.9 |
| 20260507184046 | 5 | 191 | 9.7 | 12.9 | 0.00 | 0.00 | 0.00 | 87 | 853.9 |
| 20260507183947 | 5 | 193 | 9.7 | 12.9 | 0.00 | 0.00 | 0.00 | 87 | 853.9 |
| 20260507183746 | 5 | 184 | 8.0 | 9.7 | 0.00 | 0.00 | 0.00 | 87 | 853.9 |
| 20260507183543 | 5 | 182 | 8.0 | 11.3 | 0.00 | 0.00 | 0.00 | 87 | 853.9 |
| 20260507183344 | 5 | 186 | 8.0 | 12.9 | 0.00 | 0.00 | 0.00 | 87 | 853.9 |
| 20260507183143 | 5 | 182 | 9.7 | 11.3 | 0.00 | 0.00 | 0.00 | 87 | 853.9 |
| 20260507183043 | 5 | 180 | 9.7 | 11.3 | 0.00 | 0.00 | 0.00 | 87 | 853.9 |
| 20260507182944 | 5 | 182 | 9.7 | 12.9 | 0.00 | 0.00 | 0.00 | 88 | 853.9 |
| 20260507182743 | 5 | 185 | 9.7 | 12.9 | 0.00 | 0.00 | 0.00 | 88 | 853.9 |
| 20260507182540 | 5 | 183 | 8.0 | 11.3 | 0.00 | 0.00 | 0.00 | 88 | 853.8 |
| 20260507182341 | 5 | 185 | 8.0 | 11.3 | 0.00 | 0.00 | 0.00 | 88 | 853.8 |
| 20260507182142 | 5 | 186 | 8.0 | 12.9 | 0.00 | 0.00 | 0.00 | 88 | 853.8 |
| 20260507182040 | 5 | 186 | 8.0 | 12.9 | 0.00 | 0.00 | 0.00 | 87 | 853.8 |
| 20260507181942 | 5 | 185 | 8.0 | 11.3 | 0.00 | 0.00 | 0.00 | 87 | 853.8 |
| 20260507181740 | 5 | 182 | 6.4 | 9.7 | 0.00 | 0.00 | 0.00 | 87 | 853.8 |
| 20260507181537 | 5 | 188 | 8.0 | 12.9 | 0.00 | 0.00 | 0.00 | 87 | 853.8 |
| 20260507181337 | 5 | 194 | 9.7 | 12.9 | 0.00 | 0.00 | 0.00 | 87 | 853.8 |
| 20260507181138 | 5 | 194 | 9.7 | 12.9 | 0.00 | 0.00 | 0.00 | 87 | 853.7 |
| 20260507181037 | 5 | 195 | 9.7 | 12.9 | 0.00 | 0.00 | 0.00 | 87 | 853.7 |
| 20260507180938 | 6 | 195 | 9.7 | 12.9 | 0.00 | 0.00 | 0.00 | 87 | 853.7 |
| 20260507180738 | 6 | 209 | 8.0 | 11.3 | 0.00 | 0.00 | 0.00 | 87 | 853.7 |
| 20260507180533 | 6 | 216 | 6.4 | 11.3 | 0.00 | 0.00 | 0.00 | 87 | 853.7 |
| 20260507180335 | 6 | 203 | 6.4 | 11.3 | 0.00 | 0.00 | 0.00 | 87 | 853.6 |
| 20260507180135 | 6 | 199 | 6.4 | 9.7 | 0.00 | 0.00 | 0.00 | 88 | 853.6 |
| 20260507180034 | 6 | 201 | 6.4 | 9.7 | 0.00 | 0.00 | 0.00 | 88 | 853.6 |
| 20260507175935 | 6 | 202 | 6.4 | 9.7 | 0.00 | 0.00 | 0.00 | 88 | 853.6 |
| 20260507175734 | 6 | 197 | 8.0 | 9.7 | 0.00 | 0.00 | 0.00 | 88 | 853.6 |
| 20260507175531 | 6 | 194 | 9.7 | 14.5 | 0.00 | 0.00 | 0.00 | 88 | 853.6 |
| 20260507175331 | 6 | 194 | 11.3 | 16.1 | 0.00 | 0.00 | 0.00 | 88 | 853.6 |
| 20260507175131 | 6 | 196 | 12.9 | 17.7 | 0.00 | 0.00 | 0.00 | 88 | 853.6 |
| 20260507175031 | 6 | 195 | 12.9 | 17.7 | 0.00 | 0.00 | 0.00 | 88 | 853.6 |
| 20260507174931 | 6 | 192 | 12.9 | 17.7 | 0.00 | 0.00 | 0.00 | 88 | 853.6 |
| 20260507174731 | 6 | 194 | 9.7 | 17.7 | 0.00 | 0.00 | 0.00 | 88 | 853.5 |
| 20260507174528 | 6 | 185 | 9.7 | 14.5 | 0.00 | 0.00 | 0.00 | 88 | 853.5 |
| 20260507174329 | 6 | 183 | 9.7 | 12.9 | 0.00 | 0.00 | 0.00 | 88 | 853.5 |
| 20260507174129 | 6 | 192 | 11.3 | 16.1 | 0.00 | 0.00 | 0.00 | 88 | 853.6 |
| 20260507174027 | 6 | 197 | 9.7 | 16.1 | 0.00 | 0.00 | 0.00 | 88 | 853.6 |
| 20260507173929 | 6 | 196 | 11.3 | 16.1 | 0.00 | 0.00 | 0.00 | 88 | 853.6 |
| 20260507173728 | 6 | 187 | 12.9 | 17.7 | 0.00 | 0.00 | 0.00 | 88 | 853.6 |
| 20260507173524 | 6 | 191 | 11.3 | 17.7 | 0.00 | 0.00 | 0.00 | 88 | 853.6 |
| 20260507173325 | 6 | 189 | 9.7 | 17.7 | 0.00 | 0.00 | 0.00 | 88 | 853.6 |
| 20260507173125 | 6 | 186 | 9.7 | 12.9 | 0.00 | 0.00 | 0.00 | 88 | 853.6 |
| 20260507173024 | 6 | 188 | 9.7 | 12.9 | 0.00 | 0.00 | 0.00 | 88 | 853.6 |
| 20260507172925 | 6 | 188 | 9.7 | 12.9 | 0.00 | 0.00 | 0.00 | 88 | 853.6 |
| 20260507172725 | 6 | 187 | 9.7 | 11.3 | 0.00 | 0.00 | 0.00 | 88 | 853.6 |
| 20260507172521 | 6 | 192 | 9.7 | 14.5 | 0.00 | 0.00 | 0.00 | 88 | 853.6 |
| 20260507172323 | 6 | 192 | 8.0 | 14.5 | 0.00 | 0.00 | 0.00 | 88 | 853.6 |
| 20260507172122 | 6 | 191 | 9.7 | 11.3 | 0.00 | 0.00 | 0.00 | 88 | 853.6 |
| 20260507172021 | 6 | 189 | 8.0 | 11.3 | 0.00 | 0.00 | 0.00 | 88 | 853.6 |
| 20260507171723 | 6 | 194 | 8.0 | 11.3 | 0.00 | 0.00 | 0.00 | 88 | 853.5 |
| 20260507171518 | 6 | 189 | 6.4 | 9.7 | 0.00 | 0.00 | 0.00 | 88 | 853.5 |
| 20260507171321 | 6 | 193 | 6.4 | 9.7 | 0.00 | 0.00 | 0.00 | 88 | 853.5 |
| 20260507171119 | 6 | 189 | 6.4 | 9.7 | 0.00 | 0.00 | 0.00 | 88 | 853.5 |
| 20260507171018 | 6 | 187 | 6.4 | 9.7 | 0.00 | 0.00 | 0.00 | 88 | 853.5 |
| 20260507170919 | 6 | 189 | 6.4 | 9.7 | 0.00 | 0.00 | 0.00 | 88 | 853.5 |
| 20260507170719 | 6 | 187 | 8.0 | 11.3 | 0.00 | 0.00 | 0.00 | 88 | 853.5 |
| 20260507170515 | 6 | 183 | 8.0 | 11.3 | 0.00 | 0.00 | 0.00 | 88 | 853.5 |
| 20260507170316 | 6 | 192 | 8.0 | 11.3 | 0.00 | 0.00 | 0.00 | 88 | 853.5 |
| 20260507170117 | 6 | 193 | 8.0 | 11.3 | 0.00 | 0.00 | 0.00 | 88 | 853.5 |
| 20260507170015 | 6 | 200 | 6.4 | 11.3 | 0.00 | 0.00 | 0.00 | 88 | 853.5 |
| 20260507165716 | 6 | 221 | 6.4 | 9.7 | 0.00 | 0.00 | 0.00 | 88 | 853.4 |
| 20260507165512 | 6 | 230 | 6.4 | 9.7 | 0.00 | 0.00 | 0.00 | 88 | 853.4 |
| 20260507165313 | 6 | 233 | 6.4 | 9.7 | 0.00 | 0.00 | 0.00 | 88 | 853.4 |
| 20260507165012 | 6 | 262 | 4.8 | 6.4 | 0.00 | 0.00 | 0.00 | 88 | 853.4 |
| 20260507164913 | 6 | 271 | 4.8 | 6.4 | 0.00 | 0.00 | 0.00 | 88 | 853.4 |
| 20260507164713 | 6 | 270 | 4.8 | 6.4 | 0.00 | 0.00 | 0.00 | 88 | 853.4 |
| 20260507164509 | 6 | 243 | 6.4 | 11.3 | 0.00 | 0.00 | 0.00 | 87 | 853.4 |
| 20260507164310 | 6 | 225 | 8.0 | 12.9 | 0.00 | 0.00 | 0.00 | 88 | 853.4 |
| 20260507164110 | 6 | 243 | 9.7 | 14.5 | 0.00 | 0.00 | 0.00 | 88 | 853.4 |
| 20260507164009 | 6 | 263 | 8.0 | 14.5 | 0.00 | 0.00 | 0.00 | 88 | 853.4 |
| 20260507163911 | 7 | 279 | 6.4 | 14.5 | 0.00 | 0.00 | 0.00 | 87 | 853.3 |
| 20260507163710 | 7 | 245 | 8.0 | 11.3 | 0.00 | 0.00 | 0.00 | 87 | 853.3 |
| 20260507163453 | 7 | 193 | 8.0 | 11.3 | 0.00 | 0.00 | 0.00 | 87 | 853.4 |
| 20260507162953 | 7 | 214 | 8.0 | 16.1 | 0.00 | 0.00 | 0.00 | 87 | 853.3 |
| 20260507162855 | 7 | 210 | 8.0 | 16.1 | 0.00 | 0.00 | 0.00 | 87 | 853.3 |
| 20260507162654 | 7 | 203 | 6.4 | 12.9 | 0.00 | 0.00 | 0.00 | 87 | 853.3 |
| 20260507162450 | 7 | 209 | 6.4 | 11.3 | 0.00 | 0.00 | 0.00 | 87 | 853.2 |
| 20260507162251 | 7 | 200 | 6.4 | 12.9 | 0.00 | 0.00 | 0.00 | 87 | 853.2 |
| 20260507162052 | 7 | 205 | 9.7 | 14.5 | 0.00 | 0.00 | 0.00 | 87 | 853.2 |
| 20260507161950 | 7 | 212 | 8.0 | 14.5 | 0.00 | 0.00 | 0.00 | 87 | 853.2 |
| 20260507161850 | 7 | 207 | 9.7 | 14.5 | 0.00 | 0.00 | 0.00 | 87 | 853.2 |
| 20260507161651 | 7 | 203 | 9.7 | 14.5 | 0.00 | 0.00 | 0.00 | 87 | 853.2 |
| 20260507161447 | 7 | 207 | 9.7 | 14.5 | 0.00 | 0.00 | 0.00 | 87 | 853.2 |
| 20260507161248 | 7 | 210 | 11.3 | 14.5 | 0.00 | 0.00 | 0.00 | 87 | 853.2 |
| 20260507161049 | 7 | 213 | 11.3 | 16.1 | 0.00 | 0.00 | 0.00 | 87 | 853.3 |
| 20260507160947 | 7 | 214 | 9.7 | 16.1 | 0.00 | 0.00 | 0.00 | 87 | 853.3 |
| 20260507160849 | 7 | 215 | 9.7 | 16.1 | 0.00 | 0.00 | 0.00 | 87 | 853.3 |
| 20260507160648 | 7 | 228 | 8.0 | 12.9 | 0.00 | 0.00 | 0.00 | 87 | 853.3 |
| 20260507160444 | 7 | 219 | 6.4 | 16.1 | 0.00 | 0.00 | 0.00 | 87 | 853.3 |
| 20260507160245 | 7 | 209 | 6.4 | 11.3 | 0.00 | 0.00 | 0.00 | 87 | 853.3 |
| 20260507160045 | 7 | 196 | 8.0 | 11.3 | 0.00 | 0.00 | 0.00 | 87 | 853.3 |
| 20260507155944 | 7 | 203 | 8.0 | 12.9 | 0.00 | 0.00 | 0.00 | 86 | 853.3 |
| 20260507155844 | 7 | 206 | 8.0 | 12.9 | 0.00 | 0.00 | 0.00 | 86 | 853.3 |
| 20260507155645 | 7 | 203 | 9.7 | 12.9 | 0.00 | 0.00 | 0.00 | 86 | 853.2 |
| 20260507155441 | 7 | 201 | 9.7 | 16.1 | 0.00 | 0.00 | 0.00 | 86 | 853.2 |
| 20260507155243 | 7 | 197 | 6.4 | 14.5 | 0.00 | 0.00 | 0.00 | 86 | 853.2 |
| 20260507155042 | 7 | 191 | 8.0 | 12.9 | 0.00 | 0.00 | 0.00 | 86 | 853.3 |
| 20260507154941 | 7 | 199 | 8.0 | 12.9 | 0.00 | 0.00 | 0.00 | 86 | 853.3 |
| 20260507154842 | 7 | 200 | 8.0 | 14.5 | 0.00 | 0.00 | 0.00 | 86 | 853.3 |
| 20260507154641 | 7 | 208 | 6.4 | 14.5 | 0.00 | 0.00 | 0.00 | 86 | 853.3 |
| 20260507154438 | 7 | 215 | 6.4 | 12.9 | 0.00 | 0.00 | 0.00 | 86 | 853.3 |
| 20260507154239 | 7 | 209 | 4.8 | 12.9 | 0.00 | 0.00 | 0.00 | 86 | 853.3 |
| 20260507153938 | 7 | 205 | 8.0 | 12.9 | 0.00 | 0.00 | 0.00 | 86 | 853.3 |
| 20260507153835 | 7 | 200 | 8.0 | 12.9 | 0.00 | 0.00 | 0.00 | 86 | 853.3 |
| 20260507153635 | 7 | 194 | 8.0 | 12.9 | 0.00 | 0.00 | 0.00 | 86 | 853.2 |
| 20260507153432 | 7 | 186 | 8.0 | 14.5 | 0.00 | 0.00 | 0.00 | 86 | 853.2 |
| 20260507153233 | 7 | 189 | 6.4 | 9.7 | 0.00 | 0.00 | 0.00 | 86 | 853.3 |
| 20260507152931 | 7 | 198 | 8.0 | 14.5 | 0.00 | 0.00 | 0.00 | 86 | 853.3 |
| 20260507152833 | 7 | 197 | 9.7 | 14.5 | 0.00 | 0.00 | 0.00 | 86 | 853.3 |
| 20260507152633 | 7 | 199 | 8.0 | 11.3 | 0.00 | 0.00 | 0.00 | 86 | 853.3 |
| 20260507152428 | 7 | 199 | 6.4 | 11.3 | 0.00 | 0.00 | 0.00 | 86 | 853.3 |
| 20260507152230 | 7 | 194 | 6.4 | 11.3 | 0.00 | 0.00 | 0.00 | 85 | 853.3 |
| 20260507152030 | 7 | 192 | 8.0 | 9.7 | 0.00 | 0.00 | 0.00 | 85 | 853.3 |
| 20260507151928 | 7 | 192 | 8.0 | 12.9 | 0.00 | 0.00 | 0.00 | 85 | 853.3 |
| 20260507151829 | 7 | 191 | 8.0 | 12.9 | 0.00 | 0.00 | 0.00 | 85 | 853.3 |
| 20260507151629 | 7 | 196 | 6.4 | 11.3 | 0.00 | 0.00 | 0.00 | 85 | 853.2 |
| 20260507151425 | 7 | 199 | 6.4 | 11.3 | 0.00 | 0.00 | 0.00 | 85 | 853.2 |
| 20260507151227 | 7 | 197 | 6.4 | 11.3 | 0.00 | 0.00 | 0.00 | 85 | 853.2 |
| 20260507151026 | 7 | 197 | 6.4 | 9.7 | 0.00 | 0.00 | 0.00 | 85 | 853.2 |
| 20260507150925 | 7 | 195 | 6.4 | 9.7 | 0.00 | 0.00 | 0.00 | 85 | 853.2 |
| 20260507150828 | 7 | 191 | 8.0 | 11.3 | 0.00 | 0.00 | 0.00 | 85 | 853.2 |
| 20260507150627 | 7 | 196 | 9.7 | 11.3 | 0.00 | 0.00 | 0.00 | 85 | 853.1 |
| 20260507150423 | 7 | 200 | 6.4 | 9.7 | 0.00 | 0.00 | 0.00 | 85 | 853.1 |
| 20260507150224 | 8 | 204 | 6.4 | 9.7 | 0.00 | 0.00 | 0.00 | 85 | 853.1 |
| 20260507145923 | 8 | 201 | 4.8 | 9.7 | 0.00 | 0.00 | 0.00 | 85 | 853.1 |
| 20260507145824 | 8 | 199 | 4.8 | 9.7 | 0.00 | 0.00 | 0.00 | 85 | 853.2 |
| 20260507145624 | 8 | 194 | 6.4 | 11.3 | 0.00 | 0.00 | 0.00 | 84 | 853.2 |
| 20260507145420 | 8 | 197 | 8.0 | 11.3 | 0.00 | 0.00 | 0.00 | 84 | 853.1 |
| 20260507145221 | 8 | 207 | 6.4 | 8.0 | 0.00 | 0.00 | 0.00 | 84 | 853.1 |
| 20260507144920 | 8 | 208 | 8.0 | 11.3 | 0.00 | 0.00 | 0.00 | 84 | 853.1 |
| 20260507144820 | 8 | 207 | 8.0 | 11.3 | 0.00 | 0.00 | 0.00 | 84 | 853.1 |
| 20260507144621 | 8 | 204 | 6.4 | 9.7 | 0.00 | 0.00 | 0.00 | 84 | 853.1 |
| 20260507144417 | 8 | 208 | 6.4 | 9.7 | 0.00 | 0.00 | 0.00 | 84 | 853.0 |
| 20260507144218 | 8 | 208 | 6.4 | 9.7 | 0.00 | 0.00 | 0.00 | 84 | 852.9 |
| 20260507144018 | 8 | 205 | 6.4 | 9.7 | 0.00 | 0.00 | 0.00 | 84 | 852.9 |
| 20260507143917 | 8 | 211 | 4.8 | 8.0 | 0.00 | 0.00 | 0.00 | 84 | 852.9 |
| 20260507143414 | 8 | 216 | 8.0 | 11.3 | 0.00 | 0.00 | 0.00 | 84 | 852.9 |
| 20260507143014 | 8 | 208 | 9.7 | 12.9 | 0.00 | 0.00 | 0.00 | 85 | 852.9 |
| 20260507142914 | 8 | 208 | 8.0 | 12.9 | 0.00 | 0.00 | 0.00 | 85 | 852.9 |
| 20260507142814 | 8 | 213 | 6.4 | 12.9 | 0.00 | 0.00 | 0.00 | 85 | 852.9 |
| 20260507142614 | 8 | 208 | 6.4 | 11.3 | 0.00 | 0.00 | 0.00 | 85 | 852.9 |
| 20260507142411 | 8 | 212 | 9.7 | 16.1 | 0.00 | 0.00 | 0.00 | 85 | 852.9 |
| 20260507142212 | 8 | 216 | 8.0 | 12.9 | 0.00 | 0.00 | 0.00 | 85 | 852.9 |
| 20260507141911 | 8 | 206 | 11.3 | 16.1 | 0.00 | 0.00 | 0.00 | 85 | 852.9 |
| 20260507141812 | 8 | 205 | 11.3 | 16.1 | 0.00 | 0.00 | 0.00 | 85 | 852.9 |
| 20260507141612 | 8 | 205 | 8.0 | 12.9 | 0.00 | 0.00 | 0.00 | 85 | 852.9 |
| 20260507141408 | 8 | 216 | 8.0 | 12.9 | 0.00 | 0.00 | 0.00 | 85 | 852.9 |
| 20260507141209 | 8 | 209 | 8.0 | 12.9 | 0.00 | 0.00 | 0.00 | 85 | 852.9 |
| 20260507141008 | 8 | 197 | 8.0 | 12.9 | 0.00 | 0.00 | 0.00 | 85 | 852.9 |
| 20260507140908 | 8 | 194 | 9.7 | 14.5 | 0.00 | 0.00 | 0.00 | 85 | 853.0 |
| 20260507140809 | 7 | 196 | 9.7 | 14.5 | 0.00 | 0.00 | 0.00 | 85 | 853.0 |
| 20260507140609 | 7 | 197 | 9.7 | 14.5 | 0.00 | 0.00 | 0.00 | 85 | 853.0 |
| 20260507140406 | 7 | 190 | 9.7 | 12.9 | 0.00 | 0.00 | 0.00 | 85 | 853.0 |
| 20260507140206 | 7 | 193 | 9.7 | 12.9 | 0.00 | 0.00 | 0.00 | 85 | 853.1 |
| 20260507140007 | 7 | 194 | 9.7 | 12.9 | 0.00 | 0.00 | 0.00 | 85 | 853.1 |
| 20260507135852 | 7 | 192 | 9.7 | 12.9 | 0.00 | 0.00 | 0.00 | 85 | 853.2 |
| 20260507135753 | 7 | 193 | 9.7 | 12.9 | 0.00 | 0.00 | 0.00 | 85 | 853.2 |
| 20260507135349 | 7 | 192 | 9.7 | 14.5 | 0.00 | 0.00 | 0.00 | 85 | 853.2 |
| 20260507135150 | 7 | 193 | 9.7 | 16.1 | 0.00 | 0.00 | 0.00 | 85 | 853.2 |
| 20260507134951 | 7 | 193 | 9.7 | 14.5 | 0.00 | 0.00 | 0.00 | 85 | 853.2 |
| 20260507134849 | 7 | 192 | 9.7 | 14.5 | 0.00 | 0.00 | 0.00 | 85 | 853.2 |
| 20260507134749 | 7 | 194 | 11.3 | 14.5 | 0.00 | 0.00 | 0.00 | 85 | 853.1 |
| 20260507134550 | 7 | 194 | 9.7 | 14.5 | 0.00 | 0.00 | 0.00 | 85 | 853.2 |
| 20260507134346 | 7 | 190 | 8.0 | 11.3 | 0.00 | 0.00 | 0.00 | 85 | 853.3 |
| 20260507134147 | 7 | 197 | 8.0 | 11.3 | 0.00 | 0.00 | 0.00 | 85 | 853.3 |
| 20260507133947 | 7 | 194 | 8.0 | 11.3 | 0.00 | 0.00 | 0.00 | 85 | 853.3 |
| 20260507133846 | 7 | 189 | 8.0 | 11.3 | 0.00 | 0.00 | 0.00 | 85 | 853.3 |
| 20260507133747 | 6 | 195 | 8.0 | 12.9 | 0.00 | 0.00 | 0.00 | 85 | 853.3 |
| 20260507133546 | 6 | 198 | 8.0 | 12.9 | 0.00 | 0.00 | 0.00 | 85 | 853.4 |
| 20260507133343 | 6 | 195 | 8.0 | 11.3 | 0.00 | 0.00 | 0.00 | 85 | 853.4 |
| 20260507133145 | 6 | 196 | 9.7 | 16.1 | 0.00 | 0.00 | 0.00 | 85 | 853.4 |
| 20260507132944 | 6 | 192 | 9.7 | 12.9 | 0.00 | 0.00 | 0.00 | 85 | 853.4 |
| 20260507132843 | 6 | 192 | 9.7 | 12.9 | 0.00 | 0.00 | 0.00 | 85 | 853.4 |
| 20260507132745 | 6 | 189 | 9.7 | 14.5 | 0.00 | 0.00 | 0.00 | 85 | 853.5 |
| 20260507132340 | 6 | 190 | 9.7 | 17.7 | 0.00 | 0.00 | 0.00 | 84 | 853.5 |
| 20260507132141 | 6 | 185 | 8.0 | 12.9 | 0.00 | 0.00 | 0.00 | 84 | 853.5 |
| 20260507131941 | 6 | 180 | 6.4 | 12.9 | 0.00 | 0.00 | 0.00 | 84 | 853.6 |
| 20260507131840 | 6 | 177 | 6.4 | 12.9 | 0.00 | 0.00 | 0.00 | 84 | 853.6 |
| 20260507131741 | 6 | 178 | 4.8 | 8.0 | 0.00 | 0.00 | 0.00 | 84 | 853.6 |
| 20260507131540 | 6 | 177 | 4.8 | 8.0 | 0.00 | 0.00 | 0.00 | 84 | 853.6 |
| 20260507131337 | 7 | 178 | 6.4 | 9.7 | 0.00 | 0.00 | 0.00 | 84 | 853.6 |
| 20260507131138 | 7 | 186 | 6.4 | 11.3 | 0.00 | 0.00 | 0.00 | 84 | 853.7 |
| 20260507130939 | 7 | 170 | 4.8 | 8.0 | 0.00 | 0.00 | 0.00 | 84 | 853.7 |
| 20260507130837 | 7 | 166 | 3.2 | 8.0 | 0.00 | 0.00 | 0.00 | 84 | 853.7 |
| 20260507130738 | 7 | 174 | 4.8 | 9.7 | 0.00 | 0.00 | 0.00 | 84 | 853.8 |
| 20260507130538 | 7 | 193 | 9.7 | 16.1 | 0.00 | 0.00 | 0.00 | 84 | 853.8 |
| 20260507130334 | 7 | 190 | 9.7 | 16.1 | 0.00 | 0.00 | 0.00 | 84 | 853.9 |
| 20260507130134 | 7 | 191 | 8.0 | 12.9 | 0.00 | 0.00 | 0.00 | 84 | 853.9 |
| 20260507125934 | 7 | 194 | 11.3 | 17.7 | 0.00 | 0.00 | 0.00 | 84 | 853.9 |
| 20260507125834 | 7 | 196 | 11.3 | 17.7 | 0.00 | 0.00 | 0.00 | 84 | 853.9 |
| 20260507125734 | 7 | 199 | 11.3 | 17.7 | 0.00 | 0.00 | 0.00 | 84 | 853.9 |
| 20260507125534 | 7 | 205 | 9.7 | 14.5 | 0.00 | 0.00 | 0.00 | 84 | 853.6 |
| 20260507125331 | 7 | 204 | 9.7 | 14.5 | 0.00 | 0.00 | 0.00 | 84 | 853.3 |
| 20260507125131 | 7 | 211 | 8.0 | 14.5 | 0.00 | 0.00 | 0.00 | 84 | 853.1 |
| 20260507124932 | 7 | 207 | 8.0 | 9.7 | 0.00 | 0.00 | 0.00 | 84 | 852.9 |
| 20260507124830 | 7 | 208 | 6.4 | 9.7 | 0.00 | 0.00 | 0.00 | 84 | 852.9 |
| 20260507124731 | 7 | 205 | 6.4 | 12.9 | 0.00 | 0.00 | 0.00 | 84 | 852.9 |
| 20260507124530 | 7 | 197 | 9.7 | 14.5 | 0.00 | 0.00 | 0.00 | 84 | 852.8 |
| 20260507124327 | 7 | 200 | 9.7 | 16.1 | 0.00 | 0.00 | 0.00 | 84 | 852.7 |
| 20260507124128 | 7 | 198 | 9.7 | 14.5 | 0.00 | 0.00 | 0.00 | 84 | 852.7 |
| 20260507123827 | 7 | 190 | 9.7 | 17.7 | 0.00 | 0.00 | 0.00 | 83 | 852.7 |
| 20260507123728 | 7 | 193 | 8.0 | 12.9 | 0.00 | 0.00 | 0.00 | 83 | 852.8 |
| 20260507123528 | 7 | 204 | 8.0 | 11.3 | 0.00 | 0.00 | 0.00 | 83 | 852.8 |
| 20260507123324 | 7 | 195 | 9.7 | 12.9 | 0.00 | 0.00 | 0.00 | 83 | 853.0 |
| 20260507123126 | 7 | 196 | 9.7 | 16.1 | 0.00 | 0.00 | 0.00 | 83 | 853.1 |
| 20260507122925 | 7 | 204 | 9.7 | 16.1 | 0.00 | 0.00 | 0.00 | 83 | 853.1 |
| 20260507122824 | 7 | 209 | 8.0 | 12.9 | 0.00 | 0.00 | 0.00 | 83 | 853.1 |
| 20260507122726 | 7 | 214 | 9.7 | 12.9 | 0.00 | 0.00 | 0.00 | 83 | 853.1 |
| 20260507122526 | 7 | 218 | 11.3 | 14.5 | 0.00 | 0.00 | 0.00 | 83 | 853.1 |
| 20260507122321 | 7 | 218 | 12.9 | 17.7 | 0.00 | 0.00 | 0.00 | 83 | 853.0 |
| 20260507122123 | 7 | 230 | 12.9 | 17.7 | 0.00 | 0.00 | 0.00 | 83 | 853.0 |
| 20260507121822 | 7 | 228 | 12.9 | 20.9 | 0.00 | 0.00 | 0.00 | 82 | 853.0 |
| 20260507121722 | 7 | 228 | 12.9 | 20.9 | 0.00 | 0.00 | 0.00 | 82 | 853.0 |
| 20260507121523 | 7 | 228 | 12.9 | 19.3 | 0.00 | 0.00 | 0.00 | 82 | 853.1 |
| 20260507121319 | 7 | 219 | 12.9 | 19.3 | 0.00 | 0.00 | 0.00 | 82 | 853.1 |
| 20260507120819 | 7 | 217 | 11.3 | 12.9 | 0.00 | 0.00 | 0.00 | 82 | 853.2 |
| 20260507120719 | 8 | 219 | 9.7 | 12.9 | 0.00 | 0.00 | 0.00 | 82 | 853.2 |
| 20260507120520 | 8 | 218 | 9.7 | 16.1 | 0.00 | 0.00 | 0.00 | 82 | 853.2 |
| 20260507120316 | 8 | 221 | 9.7 | 16.1 | 0.00 | 0.00 | 0.00 | 82 | 853.2 |
| 20260507120115 | 8 | 237 | 11.3 | 16.1 | 0.00 | 0.00 | 0.00 | 82 | 853.2 |
| 20260507115815 | 8 | 220 | 12.9 | 22.5 | 0.00 | 0.00 | 0.00 | 82 | 853.2 |
| 20260507115716 | 8 | 220 | 12.9 | 22.5 | 0.00 | 0.00 | 0.00 | 82 | 853.2 |
| 20260507115312 | 8 | 215 | 11.3 | 16.1 | 0.00 | 0.00 | 0.00 | 82 | 853.2 |
| 20260507115113 | 8 | 211 | 9.7 | 16.1 | 0.00 | 0.00 | 0.00 | 81 | 853.2 |
| 20260507114913 | 8 | 220 | 9.7 | 14.5 | 0.00 | 0.00 | 0.00 | 81 | 853.2 |
| 20260507114812 | 8 | 219 | 11.3 | 19.3 | 0.00 | 0.00 | 0.00 | 81 | 853.2 |
| 20260507114712 | 8 | 219 | 11.3 | 19.3 | 0.00 | 0.00 | 0.00 | 81 | 853.2 |
| 20260507114512 | 8 | 223 | 9.7 | 12.9 | 0.00 | 0.00 | 0.00 | 81 | 853.2 |
| 20260507114309 | 8 | 220 | 11.3 | 17.7 | 0.00 | 0.00 | 0.00 | 81 | 853.2 |
| 20260507114120 | 8 | 219 | 9.7 | 16.1 | 0.00 | 0.00 | 0.00 | 81 | 853.1 |
| 20260507113910 | 8 | 227 | 8.0 | 11.3 | 0.00 | 0.00 | 0.00 | 81 | 853.2 |
| 20260507113809 | 8 | 224 | 8.0 | 12.9 | 0.00 | 0.00 | 0.00 | 81 | 853.1 |
| 20260507113710 | 8 | 222 | 9.7 | 12.9 | 0.00 | 0.00 | 0.00 | 81 | 853.1 |
| 20260507113306 | 9 | 228 | 8.0 | 11.3 | 0.00 | 0.00 | 0.00 | 80 | 853.1 |
| 20260507113107 | 9 | 230 | 9.7 | 14.5 | 0.00 | 0.00 | 0.00 | 80 | 853.2 |
| 20260507112907 | 9 | 234 | 9.7 | 16.1 | 0.00 | 0.00 | 0.00 | 80 | 853.2 |
| 20260507112806 | 9 | 229 | 9.7 | 16.1 | 0.00 | 0.00 | 0.00 | 80 | 853.2 |
| 20260507112250 | 10 | 229 | 9.7 | 14.5 | 0.00 | 0.00 | 0.00 | 79 | 853.2 |
| 20260507112051 | 10 | 232 | 9.7 | 14.5 | 0.00 | 0.00 | 0.00 | 79 | 853.1 |
| 20260507111851 | 10 | 236 | 9.7 | 12.9 | 0.00 | 0.00 | 0.00 | 79 | 853.1 |
| 20260507111750 | 10 | 240 | 9.7 | 14.5 | 0.00 | 0.00 | 0.00 | 78 | 853.0 |
| 20260507111653 | 10 | 239 | 11.3 | 14.5 | 0.00 | 0.00 | 0.00 | 78 | 853.0 |
| 20260507111451 | 10 | 234 | 8.0 | 14.5 | 0.00 | 0.00 | 0.00 | 78 | 853.0 |
| 20260507111247 | 10 | 234 | 8.0 | 11.3 | 0.00 | 0.00 | 0.00 | 78 | 853.0 |
| 20260507111048 | 10 | 258 | 6.4 | 9.7 | 0.00 | 0.00 | 0.00 | 78 | 853.0 |
| 20260507110848 | 10 | 240 | 8.0 | 12.9 | 0.00 | 0.00 | 0.00 | 78 | 853.0 |
| 20260507110746 | 10 | 233 | 8.0 | 12.9 | 0.00 | 0.00 | 0.00 | 78 | 853.0 |
| 20260507110447 | 10 | 217 | 11.3 | 16.1 | 0.00 | 0.00 | 0.00 | 78 | 852.9 |
| 20260507110243 | 10 | 219 | 8.0 | 16.1 | 0.00 | 0.00 | 0.00 | 78 | 852.9 |
| 20260507110045 | 10 | 225 | 8.0 | 12.9 | 0.00 | 0.00 | 0.00 | 78 | 852.9 |
| 20260507105743 | 10 | 233 | 11.3 | 17.7 | 0.00 | 0.00 | 0.00 | 78 | 852.9 |
| 20260507105644 | 10 | 234 | 9.7 | 14.5 | 0.00 | 0.00 | 0.00 | 78 | 852.9 |
| 20260507105444 | 11 | 241 | 9.7 | 12.9 | 0.00 | 0.00 | 0.00 | 78 | 852.9 |
| 20260507105240 | 10 | 233 | 9.7 | 17.7 | 0.00 | 0.00 | 0.00 | 78 | 852.9 |
| 20260507105040 | 10 | 232 | 9.7 | 17.7 | 0.00 | 0.00 | 0.00 | 79 | 852.9 |
| 20260507104840 | 10 | 233 | 8.0 | 11.3 | 0.00 | 0.00 | 0.00 | 79 | 852.9 |
| 20260507104740 | 10 | 226 | 8.0 | 9.7 | 0.00 | 0.00 | 0.00 | 79 | 852.9 |
| 20260507104640 | 10 | 224 | 6.4 | 9.7 | 0.00 | 0.00 | 0.00 | 79 | 852.9 |
| 20260507104441 | 10 | 220 | 9.7 | 12.9 | 0.00 | 0.00 | 0.00 | 79 | 853.0 |
| 20260507104237 | 10 | 230 | 9.7 | 14.5 | 0.00 | 0.00 | 0.00 | 79 | 853.0 |
| 20260507104039 | 10 | 246 | 8.0 | 9.7 | 0.00 | 0.00 | 0.00 | 79 | 853.0 |
| 20260507104026 | 10 | 223 | 9.7 | 16.1 | 0.00 | 0.00 | 0.00 | 78 | 852.9 |
| 20260507103838 | 10 | 226 | 9.7 | 16.1 | 0.00 | 0.00 | 0.00 | 78 | 852.9 |
| 20260507103737 | 10 | 223 | 9.7 | 16.1 | 0.00 | 0.00 | 0.00 | 78 | 852.9 |
| 20260507103639 | 10 | 222 | 9.7 | 16.1 | 0.00 | 0.00 | 0.00 | 78 | 852.9 |
| 20260507103438 | 10 | 225 | 9.7 | 14.5 | 0.00 | 0.00 | 0.00 | 79 | 852.9 |
| 20260507103234 | 10 | 234 | 9.7 | 12.9 | 0.00 | 0.00 | 0.00 | 78 | 852.8 |
| 20260507103035 | 10 | 230 | 9.7 | 14.5 | 0.00 | 0.00 | 0.00 | 79 | 852.8 |
| 20260507102835 | 10 | 225 | 8.0 | 12.9 | 0.00 | 0.00 | 0.00 | 79 | 852.8 |
| 20260507102734 | 10 | 228 | 8.0 | 12.9 | 0.00 | 0.00 | 0.00 | 79 | 852.8 |
| 20260507102634 | 10 | 225 | 8.0 | 12.9 | 0.00 | 0.00 | 0.00 | 79 | 852.8 |
| 20260507102434 | 10 | 221 | 8.0 | 12.9 | 0.00 | 0.00 | 0.00 | 79 | 852.8 |
| 20260507102231 | 10 | 236 | 8.0 | 11.3 | 0.00 | 0.00 | 0.00 | 79 | 852.8 |
| 20260507102032 | 10 | 217 | 6.4 | 11.3 | 0.00 | 0.00 | 0.00 | 79 | 852.7 |
| 20260507101833 | 10 | 214 | 8.0 | 14.5 | 0.00 | 0.00 | 0.00 | 79 | 852.8 |
| 20260507101731 | 10 | 225 | 9.7 | 14.5 | 0.00 | 0.00 | 0.00 | 79 | 852.8 |
| 20260507101632 | 10 | 228 | 9.7 | 14.5 | 0.00 | 0.00 | 0.00 | 79 | 852.7 |
| 20260507101431 | 10 | 232 | 9.7 | 14.5 | 0.00 | 0.00 | 0.00 | 79 | 852.8 |
| 20260507101228 | 10 | 236 | 9.7 | 14.5 | 0.00 | 0.00 | 0.00 | 79 | 852.8 |
| 20260507101039 | 10 | 229 | 9.7 | 14.5 | 0.00 | 0.00 | 0.00 | 79 | 852.7 |
| 20260507101029 | 10 | 232 | 11.3 | 16.1 | 0.00 | 0.00 | 0.00 | 79 | 852.7 |
| 20260507100828 | 10 | 230 | 11.3 | 16.1 | 0.00 | 0.00 | 0.00 | 79 | 852.7 |
| 20260507100728 | 10 | 229 | 9.7 | 14.5 | 0.00 | 0.00 | 0.00 | 79 | 852.7 |
| 20260507100629 | 10 | 232 | 11.3 | 19.3 | 0.00 | 0.00 | 0.00 | 79 | 852.7 |
| 20260507100428 | 10 | 229 | 9.7 | 19.3 | 0.00 | 0.00 | 0.00 | 79 | 852.7 |
| 20260507100225 | 10 | 235 | 9.7 | 14.5 | 0.00 | 0.00 | 0.00 | 79 | 852.7 |
| 20260507100026 | 10 | 238 | 11.3 | 16.1 | 0.00 | 0.00 | 0.00 | 79 | 852.7 |
| 20260507095826 | 10 | 239 | 9.7 | 16.1 | 0.00 | 0.00 | 0.00 | 80 | 852.6 |
| 20260507095725 | 10 | 237 | 9.7 | 14.5 | 0.00 | 0.00 | 0.00 | 80 | 852.6 |
| 20260507095626 | 10 | 243 | 8.0 | 11.3 | 0.00 | 0.00 | 0.00 | 80 | 852.6 |
| 20260507095426 | 10 | 238 | 8.0 | 12.9 | 0.00 | 0.00 | 0.00 | 80 | 852.6 |
| 20260507095222 | 10 | 234 | 8.0 | 14.5 | 0.00 | 0.00 | 0.00 | 80 | 852.6 |
| 20260507095023 | 10 | 235 | 9.7 | 12.9 | 0.00 | 0.00 | 0.00 | 80 | 852.6 |
| 20260507094823 | 10 | 225 | 9.7 | 12.9 | 0.00 | 0.00 | 0.00 | 80 | 852.6 |
| 20260507094722 | 10 | 237 | 9.7 | 14.5 | 0.00 | 0.00 | 0.00 | 80 | 852.6 |
| 20260507094623 | 10 | 242 | 9.7 | 14.5 | 0.00 | 0.00 | 0.00 | 80 | 852.5 |
| 20260507094422 | 10 | 239 | 9.7 | 16.1 | 0.00 | 0.00 | 0.00 | 80 | 852.5 |
| 20260507094219 | 10 | 239 | 9.7 | 16.1 | 0.00 | 0.00 | 0.00 | 80 | 852.5 |
| 20260507094021 | 9 | 235 | 11.3 | 16.1 | 0.00 | 0.00 | 0.00 | 80 | 852.5 |
| 20260507093820 | 9 | 247 | 9.7 | 14.5 | 0.00 | 0.00 | 0.00 | 80 | 852.5 |
| 20260507093719 | 9 | 248 | 9.7 | 12.9 | 0.00 | 0.00 | 0.00 | 81 | 852.5 |
| 20260507093621 | 9 | 244 | 9.7 | 14.5 | 0.00 | 0.00 | 0.00 | 81 | 852.6 |
| 20260507093421 | 9 | 228 | 11.3 | 16.1 | 0.00 | 0.00 | 0.00 | 81 | 852.6 |
| 20260507093216 | 9 | 231 | 11.3 | 16.1 | 0.00 | 0.00 | 0.00 | 81 | 852.6 |
| 20260507093018 | 9 | 240 | 11.3 | 17.7 | 0.00 | 0.00 | 0.00 | 80 | 852.6 |
| 20260507092817 | 9 | 235 | 11.3 | 22.5 | 0.00 | 0.00 | 0.00 | 80 | 852.6 |
| 20260507092716 | 9 | 241 | 12.9 | 22.5 | 0.00 | 0.00 | 0.00 | 80 | 852.5 |
| 20260507092617 | 9 | 242 | 12.9 | 22.5 | 0.00 | 0.00 | 0.00 | 80 | 852.5 |
| 20260507092417 | 9 | 237 | 12.9 | 14.5 | 0.00 | 0.00 | 0.00 | 80 | 852.5 |
| 20260507092213 | 9 | 241 | 8.0 | 12.9 | 0.00 | 0.00 | 0.00 | 80 | 852.4 |
| 20260507092013 | 9 | 240 | 8.0 | 17.7 | 0.00 | 0.00 | 0.00 | 80 | 852.4 |
| 20260507091813 | 9 | 244 | 11.3 | 17.7 | 0.00 | 0.00 | 0.00 | 80 | 852.4 |
| 20260507091712 | 8 | 244 | 11.3 | 16.1 | 0.00 | 0.00 | 0.00 | 80 | 852.4 |
| 20260507091613 | 8 | 243 | 11.3 | 16.1 | 0.00 | 0.00 | 0.00 | 80 | 852.4 |
| 20260507091413 | 9 | 241 | 12.9 | 19.3 | 0.00 | 0.00 | 0.00 | 80 | 852.4 |
| 20260507091209 | 9 | 242 | 11.3 | 14.5 | 0.00 | 0.00 | 0.00 | 80 | 852.5 |
| 20260507091010 | 9 | 234 | 12.9 | 19.3 | 0.00 | 0.00 | 0.00 | 80 | 852.4 |
| 20260507090810 | 9 | 233 | 11.3 | 17.7 | 0.00 | 0.00 | 0.00 | 80 | 852.3 |
| 20260507090709 | 9 | 234 | 11.3 | 16.1 | 0.00 | 0.00 | 0.00 | 80 | 852.3 |
| 20260507090610 | 9 | 237 | 11.3 | 17.7 | 0.00 | 0.00 | 0.00 | 80 | 852.2 |
| 20260507090409 | 10 | 246 | 12.9 | 17.7 | 0.00 | 0.00 | 0.00 | 80 | 852.2 |
| 20260507090206 | 10 | 250 | 11.3 | 17.7 | 0.00 | 0.00 | 0.00 | 80 | 852.2 |
| 20260507090007 | 9 | 234 | 11.3 | 14.5 | 0.00 | 0.00 | 0.00 | 80 | 852.2 |
| 20260507085808 | 9 | 230 | 11.3 | 14.5 | 0.00 | 0.00 | 0.00 | 80 | 852.2 |
| 20260507085706 | 9 | 234 | 11.3 | 14.5 | 0.00 | 0.00 | 0.00 | 80 | 852.2 |
| 20260507085608 | 9 | 235 | 11.3 | 17.7 | 0.00 | 0.00 | 0.00 | 80 | 852.2 |
| 20260507085408 | 9 | 244 | 9.7 | 17.7 | 0.00 | 0.00 | 0.00 | 80 | 852.2 |
| 20260507085203 | 10 | 245 | 9.7 | 14.5 | 0.00 | 0.00 | 0.00 | 79 | 852.2 |
| 20260507084804 | 10 | 241 | 11.3 | 19.3 | 0.00 | 0.00 | 0.00 | 79 | 852.1 |
| 20260507084650 | 10 | 241 | 11.3 | 19.3 | 0.00 | 0.00 | 0.00 | 79 | 852.1 |
| 20260507084351 | 10 | 236 | 12.9 | 17.7 | 0.00 | 0.00 | 0.00 | 79 | 852.1 |
| 20260507084147 | 10 | 230 | 12.9 | 17.7 | 0.00 | 0.00 | 0.00 | 79 | 852.1 |
| 20260507083748 | 10 | 242 | 9.7 | 19.3 | 0.00 | 0.00 | 0.00 | 79 | 851.9 |
| 20260507083647 | 10 | 243 | 9.7 | 19.3 | 0.00 | 0.00 | 0.00 | 79 | 851.9 |
| 20260507083347 | 10 | 236 | 11.3 | 22.5 | 0.00 | 0.00 | 0.00 | 79 | 851.8 |
| 20260507083143 | 10 | 246 | 9.7 | 20.9 | 0.00 | 0.00 | 0.00 | 79 | 851.7 |
| 20260507082945 | 10 | 244 | 8.0 | 14.5 | 0.00 | 0.00 | 0.00 | 80 | 851.6 |
| 20260507082744 | 10 | 236 | 9.7 | 14.5 | 0.00 | 0.00 | 0.00 | 80 | 851.7 |
| 20260507082643 | 10 | 235 | 9.7 | 19.3 | 0.00 | 0.00 | 0.00 | 80 | 851.7 |
| 20260507082546 | 10 | 232 | 11.3 | 19.3 | 0.00 | 0.00 | 0.00 | 79 | 851.7 |
| 20260507082343 | 10 | 224 | 12.9 | 20.9 | 0.00 | 0.00 | 0.00 | 79 | 851.7 |
| 20260507082140 | 10 | 216 | 12.9 | 20.9 | 0.00 | 0.00 | 0.00 | 79 | 851.7 |
| 20260507081943 | 10 | 213 | 11.3 | 17.7 | 0.00 | 0.00 | 0.00 | 80 | 851.7 |
| 20260507081742 | 10 | 218 | 9.7 | 16.1 | 0.00 | 0.00 | 0.00 | 80 | 851.6 |
| 20260507081641 | 10 | 226 | 9.7 | 17.7 | 0.00 | 0.00 | 0.00 | 80 | 851.6 |
| 20260507081540 | 10 | 227 | 12.9 | 19.3 | 0.00 | 0.00 | 0.00 | 80 | 851.5 |
| 20260507081137 | 10 | 238 | 9.7 | 16.1 | 0.00 | 0.00 | 0.00 | 80 | 851.5 |
| 20260507080939 | 10 | 243 | 9.7 | 17.7 | 0.00 | 0.00 | 0.00 | 80 | 851.5 |
| 20260507080739 | 10 | 238 | 12.9 | 17.7 | 0.00 | 0.00 | 0.00 | 80 | 851.4 |
| 20260507080637 | 9 | 236 | 12.9 | 19.3 | 0.00 | 0.00 | 0.00 | 80 | 851.4 |
| 20260507080539 | 9 | 235 | 12.9 | 19.3 | 0.00 | 0.00 | 0.00 | 80 | 851.4 |
| 20260507080338 | 9 | 218 | 12.9 | 20.9 | 0.00 | 0.00 | 0.00 | 80 | 851.5 |
| 20260507080134 | 9 | 221 | 14.5 | 20.9 | 0.00 | 0.00 | 0.00 | 80 | 851.5 |
| 20260507075735 | 9 | 215 | 11.3 | 24.1 | 0.00 | 0.00 | 0.00 | 80 | 851.5 |
| 20260507075634 | 9 | 212 | 11.3 | 24.1 | 0.00 | 0.00 | 0.00 | 80 | 851.5 |
| 20260507075534 | 9 | 218 | 12.9 | 24.1 | 0.00 | 0.00 | 0.00 | 80 | 851.5 |
| 20260507075334 | 9 | 222 | 9.7 | 22.5 | 0.00 | 0.00 | 0.00 | 81 | 851.4 |
| 20260507075131 | 9 | 230 | 11.3 | 20.9 | 0.00 | 0.00 | 0.00 | 80 | 851.4 |
| 20260507074932 | 9 | 230 | 12.9 | 20.9 | 0.00 | 0.00 | 0.00 | 81 | 851.3 |
| 20260507074732 | 9 | 222 | 16.1 | 24.1 | 0.00 | 0.00 | 0.00 | 81 | 851.2 |
| 20260507074630 | 8 | 216 | 14.5 | 24.1 | 0.00 | 0.00 | 0.00 | 81 | 851.2 |
| 20260507074532 | 8 | 216 | 12.9 | 22.5 | 0.00 | 0.00 | 0.00 | 81 | 851.3 |
| 20260507074331 | 8 | 213 | 16.1 | 24.1 | 0.00 | 0.00 | 0.00 | 81 | 851.2 |
| 20260507074128 | 8 | 218 | 16.1 | 24.1 | 0.00 | 0.00 | 0.00 | 81 | 851.1 |
| 20260507073928 | 8 | 210 | 12.9 | 19.3 | 0.00 | 0.00 | 0.00 | 81 | 851.1 |
| 20260507073728 | 8 | 203 | 12.9 | 24.1 | 0.00 | 0.00 | 0.00 | 81 | 851.1 |
| 20260507073628 | 8 | 211 | 12.9 | 24.1 | 0.00 | 0.00 | 0.00 | 81 | 851.1 |
| 20260507073528 | 8 | 215 | 11.3 | 24.1 | 0.00 | 0.00 | 0.00 | 81 | 851.1 |
| 20260507073329 | 8 | 214 | 11.3 | 24.1 | 0.00 | 0.00 | 0.00 | 81 | 851.1 |
| 20260507073125 | 8 | 209 | 11.3 | 19.3 | 0.00 | 0.00 | 0.00 | 81 | 851.2 |
| 20260507072926 | 8 | 210 | 14.5 | 22.5 | 0.00 | 0.00 | 0.00 | 81 | 851.2 |
| 20260507072727 | 8 | 203 | 12.9 | 22.5 | 0.00 | 0.00 | 0.00 | 81 | 851.1 |
| 20260507072625 | 8 | 209 | 12.9 | 22.5 | 0.00 | 0.00 | 0.00 | 81 | 851.1 |
| 20260507072526 | 8 | 203 | 12.9 | 22.5 | 0.00 | 0.00 | 0.00 | 81 | 851.1 |
| 20260507072326 | 8 | 202 | 14.5 | 22.5 | 0.00 | 0.00 | 0.00 | 81 | 851.0 |
| 20260507072122 | 8 | 209 | 11.3 | 22.5 | 0.00 | 0.00 | 0.00 | 81 | 850.9 |
| 20260507071924 | 8 | 201 | 11.3 | 17.7 | 0.00 | 0.00 | 0.00 | 81 | 850.9 |
| 20260507071722 | 8 | 214 | 9.7 | 19.3 | 0.00 | 0.00 | 0.00 | 81 | 850.8 |
| 20260507071622 | 8 | 212 | 9.7 | 19.3 | 0.00 | 0.00 | 0.00 | 81 | 850.8 |
| 20260507071523 | 8 | 208 | 8.0 | 16.1 | 0.00 | 0.00 | 0.00 | 81 | 850.8 |
| 20260507071323 | 8 | 183 | 8.0 | 12.9 | 0.00 | 0.00 | 0.00 | 81 | 850.8 |
| 20260507071119 | 8 | 185 | 9.7 | 17.7 | 0.00 | 0.00 | 0.00 | 81 | 850.9 |
| 20260507070919 | 8 | 189 | 11.3 | 22.5 | 0.00 | 0.00 | 0.00 | 82 | 850.9 |
| 20260507070719 | 8 | 199 | 9.7 | 20.9 | 0.00 | 0.00 | 0.00 | 82 | 850.8 |
| 20260507070618 | 8 | 202 | 9.7 | 16.1 | 0.00 | 0.00 | 0.00 | 82 | 850.9 |
| 20260507070520 | 8 | 193 | 9.7 | 16.1 | 0.00 | 0.00 | 0.00 | 82 | 850.9 |
| 20260507070330 | 8 | 230 | 8.0 | 16.1 | 0.00 | 0.00 | 0.00 | 82 | 850.8 |
| 20260507070115 | 8 | 220 | 6.4 | 16.1 | 0.00 | 0.00 | 0.00 | 82 | 850.7 |
| 20260507065917 | 8 | 234 | 6.4 | 12.9 | 0.00 | 0.00 | 0.00 | 82 | 850.6 |
| 20260507065716 | 8 | 233 | 11.3 | 17.7 | 0.00 | 0.00 | 0.00 | 82 | 850.6 |
| 20260507065615 | 8 | 231 | 9.7 | 17.7 | 0.00 | 0.00 | 0.00 | 82 | 850.6 |
| 20260507065112 | 8 | 203 | 12.9 | 20.9 | 0.00 | 0.00 | 0.00 | 82 | 850.5 |
| 20260507064913 | 8 | 204 | 14.5 | 25.7 | 0.00 | 0.00 | 0.00 | 82 | 850.5 |
| 20260507064714 | 8 | 207 | 16.1 | 25.7 | 0.00 | 0.00 | 0.00 | 82 | 850.5 |
| 20260507064612 | 8 | 200 | 16.1 | 25.7 | 0.00 | 0.00 | 0.00 | 82 | 850.5 |
| 20260507064313 | 8 | 201 | 17.7 | 30.6 | 0.00 | 0.00 | 0.00 | 82 | 850.5 |
| 20260507064110 | 8 | 206 | 14.5 | 25.7 | 0.00 | 0.00 | 0.00 | 82 | 850.5 |
| 20260507063911 | 8 | 206 | 9.7 | 19.3 | 0.00 | 0.00 | 0.00 | 82 | 850.5 |
| 20260507063711 | 8 | 210 | 16.1 | 35.4 | 0.00 | 0.00 | 0.00 | 82 | 850.5 |
| 20260507063610 | 8 | 206 | 17.7 | 35.4 | 0.00 | 0.00 | 0.00 | 82 | 850.5 |
| 20260507063510 | 8 | 208 | 17.7 | 24.1 | 0.00 | 0.00 | 0.00 | 82 | 850.5 |
| 20260507063310 | 8 | 207 | 17.7 | 24.1 | 0.00 | 0.00 | 0.00 | 82 | 850.3 |
| 20260507063107 | 7 | 199 | 24.1 | 35.4 | 0.00 | 0.00 | 0.00 | 82 | 850.3 |
| 20260507062907 | 7 | 203 | 24.1 | 35.4 | 0.00 | 0.00 | 0.00 | 82 | 850.3 |
| 20260507062707 | 7 | 199 | 20.9 | 29.0 | 0.00 | 0.00 | 0.00 | 82 | 850.3 |
| 20260507062607 | 7 | 201 | 22.5 | 35.4 | 0.00 | 0.00 | 0.00 | 82 | 850.3 |
| 20260507062508 | 7 | 197 | 24.1 | 35.4 | 0.00 | 0.00 | 0.00 | 82 | 850.3 |
| 20260507062308 | 7 | 193 | 22.5 | 33.8 | 0.00 | 0.00 | 0.00 | 82 | 850.3 |
| 20260507062104 | 7 | 194 | 20.9 | 32.2 | 0.00 | 0.00 | 0.00 | 82 | 850.3 |
| 20260507061905 | 7 | 191 | 22.5 | 32.2 | 0.00 | 0.00 | 0.00 | 82 | 850.2 |
| 20260507061706 | 7 | 191 | 20.9 | 37.0 | 0.00 | 0.00 | 0.00 | 82 | 850.2 |
| 20260507061604 | 8 | 191 | 22.5 | 37.0 | 0.00 | 0.00 | 0.00 | 82 | 850.1 |
| 20260507061506 | 8 | 193 | 22.5 | 30.6 | 0.00 | 0.00 | 0.00 | 82 | 850.1 |
| 20260507061306 | 8 | 198 | 24.1 | 33.8 | 0.00 | 0.00 | 0.00 | 82 | 850.1 |
| 20260507061047 | 8 | 198 | 22.5 | 29.0 | 0.00 | 0.00 | 0.00 | 82 | 850.1 |
| 20260507060849 | 8 | 203 | 19.3 | 29.0 | 0.00 | 0.00 | 0.00 | 83 | 850.1 |
| 20260507060649 | 7 | 199 | 22.5 | 35.4 | 0.00 | 0.00 | 0.00 | 83 | 850.0 |
| 20260507060547 | 7 | 199 | 22.5 | 35.4 | 0.00 | 0.00 | 0.00 | 83 | 850.0 |
| 20260507060449 | 7 | 199 | 20.9 | 35.4 | 0.00 | 0.00 | 0.00 | 83 | 850.0 |
| 20260507060248 | 7 | 195 | 19.3 | 35.4 | 0.00 | 0.00 | 0.00 | 83 | 850.0 |
| 20260507060044 | 7 | 194 | 20.9 | 35.4 | 0.00 | 0.00 | 0.00 | 83 | 850.0 |
| 20260507055846 | 7 | 199 | 20.9 | 37.0 | 0.00 | 0.00 | 0.00 | 83 | 850.0 |
| 20260507055645 | 7 | 193 | 19.3 | 24.1 | 0.00 | 0.00 | 0.00 | 83 | 850.0 |
| 20260507055544 | 7 | 189 | 19.3 | 30.6 | 0.00 | 0.00 | 0.00 | 83 | 850.0 |
| 20260507055446 | 7 | 190 | 20.9 | 30.6 | 0.00 | 0.00 | 0.00 | 83 | 850.0 |
| 20260507055245 | 7 | 193 | 19.3 | 30.6 | 0.00 | 0.00 | 0.00 | 83 | 850.0 |
| 20260507055041 | 7 | 193 | 20.9 | 35.4 | 0.00 | 0.00 | 0.00 | 83 | 850.0 |
| 20260507054844 | 7 | 194 | 22.5 | 40.2 | 0.00 | 0.00 | 0.00 | 83 | 850.0 |
| 20260507054541 | 7 | 194 | 22.5 | 38.6 | 0.00 | 0.00 | 0.00 | 82 | 850.0 |
| 20260507054442 | 7 | 195 | 20.9 | 33.8 | 0.00 | 0.00 | 0.00 | 83 | 850.1 |
| 20260507054243 | 7 | 191 | 20.9 | 30.6 | 0.00 | 0.00 | 0.00 | 83 | 850.1 |
| 20260507054038 | 7 | 191 | 19.3 | 27.4 | 0.00 | 0.00 | 0.00 | 83 | 850.1 |
| 20260507053839 | 7 | 193 | 17.7 | 25.7 | 0.00 | 0.00 | 0.00 | 83 | 850.1 |
| 20260507053639 | 7 | 193 | 17.7 | 25.7 | 0.00 | 0.00 | 0.00 | 83 | 850.1 |
| 20260507053537 | 7 | 188 | 20.9 | 25.7 | 0.00 | 0.00 | 0.00 | 83 | 850.1 |
| 20260507053439 | 7 | 188 | 22.5 | 33.8 | 0.00 | 0.00 | 0.00 | 83 | 850.1 |
| 20260507053238 | 7 | 190 | 24.1 | 35.4 | 0.00 | 0.00 | 0.00 | 83 | 850.0 |
| 20260507053035 | 7 | 191 | 22.5 | 35.4 | 0.00 | 0.00 | 0.00 | 83 | 850.0 |
| 20260507052835 | 7 | 180 | 19.3 | 27.4 | 0.00 | 0.00 | 0.00 | 83 | 850.0 |
| 20260507052635 | 7 | 184 | 16.1 | 33.8 | 0.00 | 0.00 | 0.00 | 83 | 849.9 |
| 20260507052535 | 7 | 186 | 19.3 | 33.8 | 0.00 | 0.00 | 0.00 | 83 | 849.9 |
| 20260507052235 | 7 | 182 | 19.3 | 30.6 | 0.00 | 0.00 | 0.00 | 83 | 849.9 |
| 20260507052032 | 7 | 181 | 19.3 | 30.6 | 0.00 | 0.00 | 0.00 | 83 | 849.9 |
| 20260507051833 | 7 | 183 | 19.3 | 35.4 | 0.00 | 0.00 | 0.00 | 83 | 850.0 |
| 20260507051633 | 7 | 187 | 20.9 | 37.0 | 0.00 | 0.00 | 0.00 | 83 | 850.0 |
| 20260507051532 | 7 | 186 | 22.5 | 37.0 | 0.00 | 0.00 | 0.00 | 84 | 850.0 |
| 20260507051430 | 7 | 188 | 22.5 | 37.0 | 0.00 | 0.00 | 0.00 | 84 | 850.0 |
| 20260507051230 | 7 | 179 | 19.3 | 32.2 | 0.00 | 0.00 | 0.00 | 84 | 850.0 |
| 20260507051025 | 7 | 184 | 16.1 | 29.0 | 0.00 | 0.00 | 0.00 | 84 | 850.1 |
| 20260507050826 | 7 | 187 | 17.7 | 27.4 | 0.00 | 0.00 | 0.00 | 84 | 850.1 |
| 20260507050627 | 7 | 192 | 17.7 | 29.0 | 0.00 | 0.00 | 0.00 | 84 | 850.1 |
| 20260507050525 | 7 | 194 | 16.1 | 29.0 | 0.00 | 0.00 | 0.00 | 84 | 850.1 |
| 20260507050427 | 7 | 191 | 17.7 | 29.0 | 0.00 | 0.00 | 0.00 | 84 | 850.1 |
| 20260507050226 | 7 | 185 | 16.1 | 24.1 | 0.00 | 0.00 | 0.00 | 84 | 850.1 |
| 20260507050023 | 7 | 185 | 16.1 | 27.4 | 0.00 | 0.00 | 0.00 | 84 | 850.1 |
| 20260507045824 | 7 | 191 | 19.3 | 29.0 | 0.00 | 0.00 | 0.00 | 84 | 850.0 |
| 20260507045624 | 7 | 182 | 19.3 | 29.0 | 0.00 | 0.00 | 0.00 | 84 | 850.0 |
| 20260507045522 | 7 | 176 | 17.7 | 25.7 | 0.00 | 0.00 | 0.00 | 84 | 850.0 |
| 20260507045420 | 7 | 180 | 17.7 | 29.0 | 0.00 | 0.00 | 0.00 | 83 | 850.0 |
| 20260507045219 | 7 | 185 | 19.3 | 32.2 | 0.00 | 0.00 | 0.00 | 84 | 849.9 |
| 20260507045016 | 7 | 183 | 14.5 | 24.1 | 0.00 | 0.00 | 0.00 | 84 | 849.7 |
| 20260507044617 | 7 | 174 | 14.5 | 20.9 | 0.00 | 0.00 | 0.00 | 84 | 849.6 |
| 20260507044516 | 7 | 180 | 16.1 | 20.9 | 0.00 | 0.00 | 0.00 | 84 | 849.6 |
| 20260507044416 | 7 | 182 | 17.7 | 32.2 | 0.00 | 0.00 | 0.00 | 84 | 849.6 |
| 20260507044216 | 6 | 180 | 19.3 | 32.2 | 0.00 | 0.00 | 0.00 | 84 | 849.5 |
| 20260507044013 | 6 | 181 | 20.9 | 38.6 | 0.00 | 0.00 | 0.00 | 84 | 849.5 |
| 20260507043813 | 6 | 176 | 19.3 | 40.2 | 0.00 | 0.00 | 0.00 | 84 | 849.5 |
| 20260507043513 | 6 | 180 | 19.3 | 30.6 | 0.00 | 0.00 | 0.00 | 84 | 849.5 |
| 20260507043413 | 6 | 174 | 20.9 | 30.6 | 0.00 | 0.00 | 0.00 | 84 | 849.5 |
| 20260507043214 | 6 | 184 | 24.1 | 35.4 | 0.00 | 0.00 | 0.00 | 84 | 849.5 |
| 20260507043010 | 6 | 185 | 22.5 | 35.4 | 0.00 | 0.00 | 0.00 | 84 | 849.5 |
| 20260507042812 | 6 | 185 | 20.9 | 29.0 | 0.00 | 0.00 | 0.00 | 84 | 849.5 |
| 20260507042611 | 6 | 187 | 20.9 | 32.2 | 0.00 | 0.00 | 0.00 | 84 | 849.5 |
| 20260507042510 | 6 | 186 | 20.9 | 32.2 | 0.00 | 0.00 | 0.00 | 84 | 849.5 |
| 20260507042412 | 6 | 189 | 20.9 | 38.6 | 0.00 | 0.00 | 0.00 | 84 | 849.5 |
| 20260507042213 | 6 | 193 | 22.5 | 38.6 | 0.00 | 0.00 | 0.00 | 84 | 849.5 |
| 20260507042007 | 6 | 191 | 20.9 | 27.4 | 0.00 | 0.00 | 0.00 | 84 | 849.6 |
| 20260507041808 | 6 | 193 | 19.3 | 27.4 | 0.00 | 0.00 | 0.00 | 84 | 849.6 |
| 20260507041608 | 6 | 191 | 24.1 | 37.0 | 0.00 | 0.00 | 0.00 | 84 | 849.5 |
| 20260507041507 | 6 | 190 | 25.7 | 37.0 | 0.00 | 0.00 | 0.00 | 84 | 849.5 |
| 20260507041407 | 6 | 189 | 25.7 | 37.0 | 0.00 | 0.00 | 0.00 | 84 | 849.5 |
| 20260507041208 | 6 | 186 | 24.1 | 40.2 | 0.00 | 0.00 | 0.00 | 84 | 849.5 |
| 20260507041004 | 6 | 184 | 25.7 | 40.2 | 0.00 | 0.00 | 0.00 | 84 | 849.5 |
| 20260507040805 | 6 | 184 | 25.7 | 46.7 | 0.00 | 0.00 | 0.00 | 84 | 849.4 |
| 20260507040606 | 6 | 187 | 24.1 | 46.7 | 0.00 | 0.00 | 0.00 | 84 | 849.3 |
| 20260507040504 | 6 | 188 | 24.1 | 51.5 | 0.00 | 0.00 | 0.00 | 84 | 849.3 |
| 20260507040405 | 6 | 189 | 24.1 | 51.5 | 0.00 | 0.00 | 0.00 | 84 | 849.3 |
| 20260507040205 | 6 | 189 | 24.1 | 40.2 | 0.00 | 0.00 | 0.00 | 84 | 849.4 |
| 20260507040001 | 6 | 189 | 27.4 | 43.5 | 0.00 | 0.00 | 0.00 | 84 | 849.3 |
| 20260507035802 | 6 | 192 | 27.4 | 43.5 | 0.00 | 0.00 | 0.00 | 84 | 849.3 |
| 20260507035602 | 6 | 194 | 24.1 | 37.0 | 0.00 | 0.00 | 0.00 | 84 | 849.3 |
| 20260507035502 | -17 | 193 | 22.5 | 32.2 | 0.00 | 0.00 | 0.00 | ||
| 20260507035402 | 6 | 190 | 25.7 | 43.5 | 0.00 | 0.00 | 0.00 | 84 | 849.3 |
| 20260507035202 | 6 | 191 | 27.4 | 43.5 | 0.00 | 0.00 | 0.00 | 84 | 849.3 |
| 20260507034958 | 6 | 189 | 29.0 | 41.8 | 0.00 | 0.00 | 0.00 | 84 | 849.3 |
| 20260507034759 | 6 | 198 | 27.4 | 41.8 | 0.00 | 0.00 | 0.00 | 84 | 849.3 |
| 20260507034559 | 6 | 194 | 25.7 | 40.2 | 0.00 | 0.00 | 0.00 | 83 | 849.3 |
| 20260507034458 | 6 | 190 | 25.7 | 40.2 | 0.00 | 0.00 | 0.00 | 84 | 849.3 |
| 20260507034158 | 6 | 188 | 27.4 | 43.5 | 0.00 | 0.00 | 0.00 | 83 | 849.3 |
| 20260507033955 | 6 | 190 | 22.5 | 35.4 | 0.00 | 0.00 | 0.00 | 83 | 849.3 |
| 20260507033757 | 6 | 188 | 24.1 | 43.5 | 0.00 | 0.00 | 0.00 | 83 | 849.3 |
| 20260507033556 | 6 | 189 | 25.7 | 43.5 | 0.00 | 0.00 | 0.00 | 83 | 849.3 |
| 20260507033442 | 6 | 188 | 24.1 | 38.6 | 0.00 | 0.00 | 0.00 | 83 | 849.3 |
| 20260507033342 | 6 | 191 | 25.7 | 40.2 | 0.00 | 0.00 | 0.00 | 83 | 849.3 |
| 20260507033142 | 6 | 189 | 27.4 | 40.2 | 0.00 | 0.00 | 0.00 | 83 | 849.3 |
| 20260507032939 | 6 | 191 | 25.7 | 35.4 | 0.00 | 0.00 | 0.00 | 83 | 849.4 |
| 20260507032740 | 6 | 183 | 22.5 | 35.4 | 0.00 | 0.00 | 0.00 | 83 | 849.4 |
| 20260507032540 | 6 | 182 | 19.3 | 35.4 | 0.00 | 0.00 | 0.00 | 83 | 849.4 |
| 20260507032438 | 6 | 181 | 19.3 | 35.4 | 0.00 | 0.00 | 0.00 | 83 | 849.4 |
| 20260507032340 | 6 | 184 | 20.9 | 35.4 | 0.00 | 0.00 | 0.00 | 83 | 849.4 |
| 20260507032141 | 6 | 189 | 22.5 | 35.4 | 0.00 | 0.00 | 0.00 | 83 | 849.5 |
| 20260507031935 | 6 | 183 | 24.1 | 40.2 | 0.00 | 0.00 | 0.00 | 83 | 849.5 |
| 20260507031739 | 6 | 181 | 22.5 | 40.2 | 0.00 | 0.00 | 0.00 | 83 | 849.5 |
| 20260507031539 | 6 | 186 | 22.5 | 32.2 | 0.00 | 0.00 | 0.00 | 83 | 849.5 |
| 20260507031435 | 6 | 187 | 24.1 | 38.6 | 0.00 | 0.00 | 0.00 | 83 | 849.5 |
| 20260507031333 | 6 | 189 | 24.1 | 38.6 | 0.00 | 0.00 | 0.00 | 83 | 849.5 |
| 20260507031133 | 6 | 190 | 19.3 | 30.6 | 0.00 | 0.00 | 0.00 | 83 | 849.5 |
| 20260507030929 | 6 | 191 | 17.7 | 24.1 | 0.00 | 0.00 | 0.00 | 83 | 849.5 |
| 20260507030731 | 6 | 188 | 17.7 | 30.6 | 0.00 | 0.00 | 0.00 | 82 | 849.4 |
| 20260507030531 | 6 | 183 | 17.7 | 30.6 | 0.00 | 0.00 | 0.00 | 82 | 849.4 |
| 20260507030429 | 6 | 180 | 16.1 | 30.6 | 0.00 | 0.00 | 0.00 | 82 | 849.4 |
| 20260507030330 | 6 | 179 | 14.5 | 24.1 | 0.00 | 0.00 | 0.00 | 82 | 849.4 |
| 20260507030130 | 6 | 172 | 17.7 | 27.4 | 0.00 | 0.00 | 0.00 | 82 | 849.3 |
| 20260507025926 | 6 | 180 | 16.1 | 32.2 | 0.00 | 0.00 | 0.00 | 82 | 849.4 |
| 20260507025728 | 6 | 177 | 19.3 | 32.2 | 0.00 | 0.00 | 0.00 | 82 | 849.5 |
| 20260507025527 | 6 | 181 | 16.1 | 27.4 | 0.00 | 0.00 | 0.00 | 82 | 849.5 |
| 20260507025426 | 6 | 181 | 16.1 | 30.6 | 0.00 | 0.00 | 0.00 | 82 | 849.6 |
| 20260507025327 | 6 | 185 | 16.1 | 33.8 | 0.00 | 0.00 | 0.00 | 82 | 849.6 |
| 20260507025126 | 6 | 185 | 17.7 | 33.8 | 0.00 | 0.00 | 0.00 | 82 | 849.6 |
| 20260507024923 | 6 | 188 | 16.1 | 30.6 | 0.00 | 0.00 | 0.00 | 82 | 849.6 |
| 20260507024724 | 6 | 187 | 17.7 | 32.2 | 0.00 | 0.00 | 0.00 | 82 | 849.7 |
| 20260507024524 | 6 | 176 | 16.1 | 24.1 | 0.00 | 0.00 | 0.00 | 82 | 849.7 |
| 20260507024423 | 6 | 180 | 14.5 | 24.1 | 0.00 | 0.00 | 0.00 | 82 | 849.7 |
| 20260507024324 | 6 | 179 | 16.1 | 25.7 | 0.00 | 0.00 | 0.00 | 82 | 849.8 |
| 20260507024124 | 6 | 180 | 19.3 | 27.4 | 0.00 | 0.00 | 0.00 | 82 | 849.7 |
| 20260507023920 | 6 | 188 | 19.3 | 27.4 | 0.00 | 0.00 | 0.00 | 81 | 849.8 |
| 20260507023722 | 6 | 186 | 16.1 | 27.4 | 0.00 | 0.00 | 0.00 | 81 | 849.8 |
| 20260507023521 | 6 | 194 | 16.1 | 30.6 | 0.00 | 0.00 | 0.00 | 81 | 849.8 |
| 20260507023420 | 6 | 196 | 16.1 | 30.6 | 0.00 | 0.00 | 0.00 | 81 | 849.7 |
| 20260507023322 | 6 | 196 | 17.7 | 30.6 | 0.00 | 0.00 | 0.00 | 81 | 849.7 |
| 20260507023121 | 6 | 199 | 14.5 | 25.7 | 0.00 | 0.00 | 0.00 | 81 | 849.7 |
| 20260507022917 | 6 | 201 | 9.7 | 20.9 | 0.00 | 0.00 | 0.00 | 81 | 849.8 |
| 20260507022719 | 6 | 196 | 12.9 | 19.3 | 0.00 | 0.00 | 0.00 | 81 | 849.8 |
| 20260507022518 | 6 | 188 | 12.9 | 19.3 | 0.00 | 0.00 | 0.00 | 81 | 849.8 |
| 20260507022417 | 6 | 198 | 11.3 | 19.3 | 0.00 | 0.00 | 0.00 | 81 | 849.8 |
| 20260507022318 | 6 | 197 | 12.9 | 25.7 | 0.00 | 0.00 | 0.00 | 81 | 849.7 |
| 20260507022118 | 6 | 192 | 16.1 | 25.7 | 0.00 | 0.00 | 0.00 | 81 | 849.7 |
| 20260507021914 | 6 | 180 | 12.9 | 24.1 | 0.00 | 0.00 | 0.00 | 81 | 849.6 |
| 20260507021715 | 6 | 174 | 14.5 | 22.5 | 0.00 | 0.00 | 0.00 | 81 | 849.5 |
| 20260507021515 | 6 | 184 | 16.1 | 24.1 | 0.00 | 0.00 | 0.00 | 81 | 849.5 |
| 20260507021414 | 6 | 182 | 17.7 | 25.7 | 0.00 | 0.00 | 0.00 | 81 | 849.5 |
| 20260507021315 | 6 | 181 | 19.3 | 29.0 | 0.00 | 0.00 | 0.00 | 81 | 849.6 |
| 20260507021115 | 6 | 183 | 16.1 | 29.0 | 0.00 | 0.00 | 0.00 | 81 | 849.7 |
| 20260507020911 | 6 | 185 | 14.5 | 24.1 | 0.00 | 0.00 | 0.00 | 81 | 849.7 |
| 20260507020712 | 6 | 185 | 14.5 | 22.5 | 0.00 | 0.00 | 0.00 | 81 | 849.8 |
| 20260507020512 | 6 | 186 | 14.5 | 22.5 | 0.00 | 0.00 | 0.00 | 81 | 849.7 |
| 20260507020411 | 6 | 186 | 16.1 | 27.4 | 0.00 | 0.00 | 0.00 | 81 | 849.7 |
| 20260507020312 | 6 | 189 | 16.1 | 27.4 | 0.00 | 0.00 | 0.00 | 81 | 849.7 |
| 20260507020112 | 6 | 190 | 11.3 | 20.9 | 0.00 | 0.00 | 0.00 | 81 | 849.7 |
| 20260507015908 | 6 | 180 | 12.9 | 22.5 | 0.00 | 0.00 | 0.00 | 81 | 849.7 |
| 20260507015709 | 6 | 178 | 12.9 | 29.0 | 0.00 | 0.00 | 0.00 | 81 | 849.7 |
| 20260507015509 | 6 | 189 | 16.1 | 30.6 | 0.00 | 0.00 | 0.00 | 81 | 849.7 |
| 20260507015408 | 6 | 193 | 12.9 | 30.6 | 0.00 | 0.00 | 0.00 | 81 | 849.8 |
| 20260507015309 | 6 | 191 | 12.9 | 20.9 | 0.00 | 0.00 | 0.00 | 81 | 849.8 |
| 20260507015109 | 6 | 197 | 11.3 | 19.3 | 0.00 | 0.00 | 0.00 | 81 | 849.9 |
| 20260507014905 | 6 | 202 | 9.7 | 19.3 | 0.00 | 0.00 | 0.00 | 81 | 849.9 |
| 20260507014705 | 6 | 216 | 8.0 | 16.1 | 0.00 | 0.00 | 0.00 | 81 | 849.9 |
| 20260507014505 | 6 | 216 | 8.0 | 16.1 | 0.00 | 0.00 | 0.00 | 81 | 849.8 |
| 20260507014405 | 6 | 210 | 8.0 | 16.1 | 0.00 | 0.00 | 0.00 | 81 | 849.8 |
| 20260507014305 | 6 | 201 | 8.0 | 16.1 | 0.00 | 0.00 | 0.00 | 81 | 849.7 |
| 20260507014105 | 6 | 188 | 11.3 | 20.9 | 0.00 | 0.00 | 0.00 | 81 | 849.6 |
| 20260507013902 | 6 | 183 | 12.9 | 22.5 | 0.00 | 0.00 | 0.00 | 81 | 849.6 |
| 20260507013704 | 6 | 196 | 12.9 | 22.5 | 0.00 | 0.00 | 0.00 | 81 | 849.6 |
| 20260507013503 | 6 | 195 | 12.9 | 29.0 | 0.00 | 0.00 | 0.00 | 81 | 849.5 |
| 20260507013402 | 6 | 191 | 12.9 | 29.0 | 0.00 | 0.00 | 0.00 | 81 | 849.5 |
| 20260507013304 | 6 | 188 | 12.9 | 29.0 | 0.00 | 0.00 | 0.00 | 81 | 849.5 |